Time,TemperatureF,DewpointF,PressureIn,WindDirection,WindDirectionDegrees,WindSpeedMPH,WindSpeedGustMPH,Humidity,HourlyPrecipIn,Conditions,Clouds,dailyrainin,SoftwareType,DateUTC
2013-08-08 00:01:00,72.7,67.6,30.08,SSE,167,0.0,4.0,84,0.00,,,0.00,Wunderground v.1.15,2013-08-08 04:01:00,
2013-08-08 00:02:00,72.7,67.6,30.08,SSE,167,0.0,4.0,84,0.00,,,0.00,Wunderground v.1.15,2013-08-08 04:02:00,
2013-08-08 00:07:00,72.8,67.7,30.08,South,173,0.0,5.0,84,0.00,,,0.00,Wunderground v.1.15,2013-08-08 04:07:00,
2013-08-08 00:08:00,72.8,67.7,30.08,South,175,2.0,5.0,84,0.00,,,0.00,Wunderground v.1.15,2013-08-08 04:08:00,
2013-08-08 00:10:00,72.8,67.7,30.07,SSW,207,0.0,5.0,84,0.00,,,0.00,Wunderground v.1.15,2013-08-08 04:10:00,
2013-08-08 00:13:00,72.8,67.7,30.07,SSW,207,0.0,2.0,84,0.00,,,0.00,Wunderground v.1.15,2013-08-08 04:13:00,
2013-08-08 00:16:00,72.8,67.7,30.07,SSW,207,0.0,2.0,84,0.00,,,0.00,Wunderground v.1.15,2013-08-08 04:16:00,
2013-08-08 00:17:00,72.8,67.7,30.08,SSE,153,5.0,5.0,84,0.00,,,0.00,Wunderground v.1.15,2013-08-08 04:17:00,
2013-08-08 00:18:00,72.8,67.7,30.08,SSE,155,0.0,5.0,84,0.00,,,0.00,Wunderground v.1.15,2013-08-08 04:18:00,
2013-08-08 00:21:00,72.8,67.7,30.07,NE,42,0.0,5.0,84,0.00,,,0.00,Wunderground v.1.15,2013-08-08 04:21:00,
2013-08-08 00:22:00,72.8,67.7,30.07,NW,306,2.0,2.0,84,0.00,,,0.00,Wunderground v.1.15,2013-08-08 04:22:00,
2013-08-08 00:24:00,72.8,67.7,30.07,South,183,0.0,2.0,84,0.00,,,0.00,Wunderground v.1.15,2013-08-08 04:24:00,
2013-08-08 00:25:00,73.0,67.9,30.07,South,184,0.0,2.0,84,0.00,,,0.00,Wunderground v.1.15,2013-08-08 04:25:00,
2013-08-08 00:27:00,73.0,67.9,30.07,South,184,0.0,2.0,84,0.00,,,0.00,Wunderground v.1.15,2013-08-08 04:27:00,
2013-08-08 00:29:00,73.0,67.9,30.08,South,184,0.0,2.0,84,0.00,,,0.00,Wunderground v.1.15,2013-08-08 04:29:00,
2013-08-08 00:30:00,73.0,67.9,30.08,SSE,151,0.0,2.0,84,0.00,,,0.00,Wunderground v.1.15,2013-08-08 04:30:00,
2013-08-08 00:31:00,73.0,67.9,30.08,SSE,151,0.0,2.0,84,0.00,,,0.00,Wunderground v.1.15,2013-08-08 04:31:00,
2013-08-08 00:32:00,73.0,67.9,30.08,South,174,2.0,2.0,84,0.00,,,0.00,Wunderground v.1.15,2013-08-08 04:32:00,
2013-08-08 00:35:00,73.0,67.9,30.08,West,271,1.0,4.0,84,0.00,,,0.00,Wunderground v.1.15,2013-08-08 04:35:00,
2013-08-08 00:37:00,73.0,67.9,30.08,West,273,1.0,4.0,84,0.00,,,0.00,Wunderground v.1.15,2013-08-08 04:37:00,
2013-08-08 00:38:00,73.0,67.9,30.08,West,273,0.0,4.0,84,0.00,,,0.00,Wunderground v.1.15,2013-08-08 04:38:00,
2013-08-08 00:42:00,73.0,67.9,30.08,NW,306,0.0,0.0,84,0.00,,,0.00,Wunderground v.1.15,2013-08-08 04:42:00,
2013-08-08 00:44:00,73.0,67.9,30.08,South,184,1.0,1.0,84,0.00,,,0.00,Wunderground v.1.15,2013-08-08 04:44:00,
2013-08-08 00:47:00,73.2,68.1,30.08,South,173,3.0,3.0,84,0.00,,,0.00,Wunderground v.1.15,2013-08-08 04:47:00,
2013-08-08 00:49:00,73.2,68.1,30.08,West,280,3.0,3.0,84,0.00,,,0.00,Wunderground v.1.15,2013-08-08 04:49:00,
2013-08-08 00:50:00,73.2,68.1,30.08,West,281,0.0,3.0,84,0.00,,,0.00,Wunderground v.1.15,2013-08-08 04:50:00,
2013-08-08 00:52:00,73.2,68.1,30.07,SE,130,1.0,1.0,84,0.00,,,0.00,Wunderground v.1.15,2013-08-08 04:52:00,
2013-08-08 00:54:00,73.2,68.1,30.07,NE,55,0.0,3.0,84,0.00,,,0.00,Wunderground v.1.15,2013-08-08 04:54:00,
2013-08-08 00:55:00,73.2,68.1,30.07,NE,55,0.0,3.0,84,0.00,,,0.00,Wunderground v.1.15,2013-08-08 04:55:00,
2013-08-08 00:56:00,73.2,68.1,30.07,SE,145,3.0,3.0,84,0.00,,,0.00,Wunderground v.1.15,2013-08-08 04:56:00,
2013-08-08 00:57:00,73.2,68.1,30.07,SE,146,2.0,3.0,84,0.00,,,0.00,Wunderground v.1.15,2013-08-08 04:57:00,
2013-08-08 01:00:00,73.3,68.2,30.07,South,173,0.0,4.0,84,0.00,,,0.00,Wunderground v.1.15,2013-08-08 05:00:00,
2013-08-08 01:02:00,73.3,68.2,30.07,SSE,156,1.0,1.0,84,0.00,,,0.00,Wunderground v.1.15,2013-08-08 05:02:00,
2013-08-08 01:05:00,73.3,68.2,30.07,WNW,282,1.0,1.0,84,0.00,,,0.00,Wunderground v.1.15,2013-08-08 05:05:00,
2013-08-08 01:07:00,73.3,68.2,30.07,ESE,121,2.0,2.0,84,0.00,,,0.00,Wunderground v.1.15,2013-08-08 05:07:00,
2013-08-08 01:08:00,73.3,68.2,30.07,ESE,121,0.0,2.0,84,0.00,,,0.00,Wunderground v.1.15,2013-08-08 05:08:00,
2013-08-08 01:13:00,73.3,68.2,30.07,ESE,118,0.0,4.0,84,0.00,,,0.00,Wunderground v.1.15,2013-08-08 05:13:00,
2013-08-08 01:14:00,73.3,68.2,30.07,ESE,118,0.0,4.0,84,0.00,,,0.00,Wunderground v.1.15,2013-08-08 05:14:00,
2013-08-08 01:16:00,73.3,68.2,30.07,ESE,117,1.0,4.0,84,0.00,,,0.00,Wunderground v.1.15,2013-08-08 05:16:00,
2013-08-08 01:18:00,73.3,68.2,30.07,SE,142,0.0,4.0,84,0.00,,,0.00,Wunderground v.1.15,2013-08-08 05:18:00,
2013-08-08 01:19:00,73.3,68.5,30.07,SE,142,0.0,4.0,85,0.00,,,0.00,Wunderground v.1.15,2013-08-08 05:19:00,
2013-08-08 01:21:00,73.3,68.5,30.07,SSE,161,0.0,4.0,85,0.00,,,0.00,Wunderground v.1.15,2013-08-08 05:21:00,
2013-08-08 01:23:00,73.3,68.5,30.07,West,277,2.0,2.0,85,0.00,,,0.00,Wunderground v.1.15,2013-08-08 05:23:00,
2013-08-08 01:24:00,73.3,68.5,30.07,WSW,253,0.0,2.0,85,0.00,,,0.00,Wunderground v.1.15,2013-08-08 05:24:00,
2013-08-08 01:26:00,73.3,68.5,30.07,ESE,120,3.0,3.0,85,0.00,,,0.00,Wunderground v.1.15,2013-08-08 05:26:00,
2013-08-08 01:27:00,73.3,68.5,30.07,SSE,167,0.0,3.0,85,0.00,,,0.00,Wunderground v.1.15,2013-08-08 05:27:00,
2013-08-08 01:28:00,73.3,68.5,30.06,SSE,167,0.0,3.0,85,0.00,,,0.00,Wunderground v.1.15,2013-08-08 05:28:00,
2013-08-08 01:29:00,73.3,68.5,30.07,SSE,167,0.0,3.0,85,0.00,,,0.00,Wunderground v.1.15,2013-08-08 05:29:00,
2013-08-08 01:31:00,73.3,68.5,30.07,South,170,0.0,3.0,85,0.00,,,0.00,Wunderground v.1.15,2013-08-08 05:31:00,
2013-08-08 01:33:00,73.2,68.4,30.06,West,276,3.0,3.0,85,0.00,,,0.00,Wunderground v.1.15,2013-08-08 05:33:00,
2013-08-08 01:34:00,73.2,68.4,30.06,West,265,1.0,3.0,85,0.00,,,0.00,Wunderground v.1.15,2013-08-08 05:34:00,
2013-08-08 01:36:00,73.2,68.4,30.06,South,182,0.0,3.0,85,0.00,,,0.00,Wunderground v.1.15,2013-08-08 05:36:00,
2013-08-08 01:37:00,73.0,68.2,30.06,SSE,156,0.0,3.0,85,0.00,,,0.00,Wunderground v.1.15,2013-08-08 05:37:00,
2013-08-08 01:39:00,73.0,68.2,30.06,East,87,1.0,3.0,85,0.00,,,0.00,Wunderground v.1.15,2013-08-08 05:39:00,
2013-08-08 01:40:00,73.0,68.2,30.06,East,87,1.0,3.0,85,0.00,,,0.00,Wunderground v.1.15,2013-08-08 05:40:00,
2013-08-08 01:44:00,73.0,68.2,30.06,South,181,0.0,3.0,85,0.00,,,0.00,Wunderground v.1.15,2013-08-08 05:44:00,
2013-08-08 01:45:00,73.0,68.2,30.06,South,180,1.0,3.0,85,0.00,,,0.00,Wunderground v.1.15,2013-08-08 05:45:00,
2013-08-08 01:46:00,73.0,68.2,30.06,South,180,0.0,3.0,85,0.00,,,0.00,Wunderground v.1.15,2013-08-08 05:46:00,
2013-08-08 01:47:00,73.0,68.6,30.06,South,180,0.0,3.0,86,0.00,,,0.00,Wunderground v.1.15,2013-08-08 05:47:00,
2013-08-08 01:50:00,73.0,68.6,30.06,South,183,0.0,3.0,86,0.00,,,0.00,Wunderground v.1.15,2013-08-08 05:50:00,
2013-08-08 01:54:00,73.0,68.9,30.06,West,261,0.0,4.0,87,0.00,,,0.00,Wunderground v.1.15,2013-08-08 05:54:00,
2013-08-08 01:55:00,73.0,68.9,30.05,SSW,194,0.0,4.0,87,0.00,,,0.00,Wunderground v.1.15,2013-08-08 05:55:00,
2013-08-08 01:56:00,73.0,68.9,30.06,SSW,194,1.0,4.0,87,0.00,,,0.00,Wunderground v.1.15,2013-08-08 05:56:00,
2013-08-08 01:57:00,73.0,68.9,30.05,South,186,1.0,4.0,87,0.00,,,0.00,Wunderground v.1.15,2013-08-08 05:57:00,
2013-08-08 01:59:00,73.0,68.9,30.05,South,186,2.0,4.0,87,0.00,,,0.00,Wunderground v.1.15,2013-08-08 05:59:00,
2013-08-08 02:03:00,72.8,68.7,30.05,SE,135,0.0,1.0,87,0.00,,,0.00,Wunderground v.1.15,2013-08-08 06:03:00,
2013-08-08 02:04:00,72.8,68.7,30.05,WNW,298,3.0,6.0,87,0.00,,,0.00,Wunderground v.1.15,2013-08-08 06:04:00,
2013-08-08 02:05:00,72.8,68.7,30.05,WNW,287,1.0,6.0,87,0.00,,,0.00,Wunderground v.1.15,2013-08-08 06:05:00,
2013-08-08 02:08:00,72.7,68.6,30.05,SSE,157,3.0,6.0,87,0.00,,,0.00,Wunderground v.1.15,2013-08-08 06:08:00,
2013-08-08 02:09:00,72.7,68.6,30.05,SSE,157,0.0,6.0,87,0.00,,,0.00,Wunderground v.1.15,2013-08-08 06:09:00,
2013-08-08 02:10:00,72.7,68.6,30.05,SE,139,0.0,6.0,87,0.00,,,0.00,Wunderground v.1.15,2013-08-08 06:10:00,
2013-08-08 02:13:00,72.7,68.3,30.05,SW,225,0.0,5.0,86,0.00,,,0.00,Wunderground v.1.15,2013-08-08 06:13:00,
2013-08-08 02:14:00,72.7,68.3,30.05,SW,225,1.0,5.0,86,0.00,,,0.00,Wunderground v.1.15,2013-08-08 06:14:00,
2013-08-08 02:15:00,72.7,68.3,30.05,SW,225,0.0,5.0,86,0.00,,,0.00,Wunderground v.1.15,2013-08-08 06:15:00,
2013-08-08 02:19:00,72.7,68.3,30.05,SSE,161,0.0,5.0,86,0.00,,,0.00,Wunderground v.1.15,2013-08-08 06:19:00,
2013-08-08 02:20:00,72.7,68.3,30.05,ESE,122,1.0,5.0,86,0.00,,,0.00,Wunderground v.1.15,2013-08-08 06:20:00,
2013-08-08 02:24:00,72.7,68.6,30.05,SE,130,0.0,1.0,87,0.00,,,0.00,Wunderground v.1.15,2013-08-08 06:24:00,
2013-08-08 02:25:00,72.7,68.6,30.05,SE,130,0.0,1.0,87,0.00,,,0.00,Wunderground v.1.15,2013-08-08 06:25:00,
2013-08-08 02:26:00,72.8,68.7,30.05,SE,130,2.0,3.0,87,0.00,,,0.00,Wunderground v.1.15,2013-08-08 06:26:00,
2013-08-08 02:30:00,72.8,68.7,30.05,SSW,208,1.0,5.0,87,0.00,,,0.00,Wunderground v.1.15,2013-08-08 06:30:00,
2013-08-08 02:31:00,72.8,68.7,30.05,South,185,3.0,5.0,87,0.00,,,0.00,Wunderground v.1.15,2013-08-08 06:31:00,
2013-08-08 02:35:00,72.8,68.7,30.05,ESE,117,0.0,5.0,87,0.00,,,0.00,Wunderground v.1.15,2013-08-08 06:35:00,
2013-08-08 02:36:00,72.8,68.7,30.05,WNW,292,4.0,5.0,87,0.00,,,0.00,Wunderground v.1.15,2013-08-08 06:36:00,
2013-08-08 02:41:00,72.7,68.9,30.05,South,182,3.0,5.0,88,0.00,,,0.00,Wunderground v.1.15,2013-08-08 06:41:00,
2013-08-08 02:42:00,72.7,68.9,30.05,South,182,0.0,1.0,88,0.00,,,0.00,Wunderground v.1.15,2013-08-08 06:42:00,
2013-08-08 02:46:00,72.5,68.7,30.05,SSE,167,1.0,3.0,88,0.00,,,0.00,Wunderground v.1.15,2013-08-08 06:46:00,
2013-08-08 02:47:00,72.5,68.7,30.05,SSE,168,1.0,3.0,88,0.00,,,0.00,Wunderground v.1.15,2013-08-08 06:47:00,
2013-08-08 02:48:00,72.5,68.7,30.05,SSE,166,0.0,3.0,88,0.00,,,0.00,Wunderground v.1.15,2013-08-08 06:48:00,
2013-08-08 02:51:00,72.5,68.7,30.05,SSE,166,0.0,3.0,88,0.00,,,0.00,Wunderground v.1.15,2013-08-08 06:51:00,
2013-08-08 02:52:00,72.5,68.7,30.05,SSE,166,0.0,0.0,88,0.00,,,0.00,Wunderground v.1.15,2013-08-08 06:52:00,
2013-08-08 02:53:00,72.5,68.7,30.05,SSE,159,1.0,4.0,88,0.00,,,0.00,Wunderground v.1.15,2013-08-08 06:53:00,
2013-08-08 02:57:00,72.5,69.1,30.05,South,178,0.0,4.0,89,0.00,,,0.00,Wunderground v.1.15,2013-08-08 06:57:00,
2013-08-08 02:58:00,72.5,69.1,30.05,South,178,0.0,4.0,89,0.00,,,0.00,Wunderground v.1.15,2013-08-08 06:58:00,
2013-08-08 02:59:00,72.5,69.1,30.05,South,178,0.0,4.0,89,0.00,,,0.00,Wunderground v.1.15,2013-08-08 06:59:00,
2013-08-08 03:02:00,72.3,68.9,30.06,South,178,0.0,0.0,89,0.00,,,0.00,Wunderground v.1.15,2013-08-08 07:02:00,
2013-08-08 03:03:00,72.5,69.1,30.06,South,178,0.0,0.0,89,0.00,,,0.00,Wunderground v.1.15,2013-08-08 07:03:00,
2013-08-08 03:05:00,72.5,69.1,30.06,South,188,0.0,1.0,89,0.00,,,0.00,Wunderground v.1.15,2013-08-08 07:05:00,
2013-08-08 03:07:00,72.5,69.1,30.06,South,188,0.0,1.0,89,0.00,,,0.00,Wunderground v.1.15,2013-08-08 07:07:00,
2013-08-08 03:08:00,72.5,69.1,30.06,South,188,1.0,1.0,89,0.00,,,0.00,Wunderground v.1.15,2013-08-08 07:08:00,
2013-08-08 03:11:00,72.5,69.4,30.06,South,188,1.0,1.0,90,0.55,,,0.02,Wunderground v.1.15,2013-08-08 07:11:00,
2013-08-08 03:12:00,72.5,69.4,30.06,South,188,0.0,0.0,90,0.96,,,0.03,Wunderground v.1.15,2013-08-08 07:12:00,
2013-08-08 03:13:00,72.5,69.4,30.06,South,188,0.0,0.0,90,0.75,,,0.05,Wunderground v.1.15,2013-08-08 07:13:00,
2013-08-08 03:14:00,72.5,69.4,30.07,South,188,0.0,0.0,90,0.62,,,0.05,Wunderground v.1.15,2013-08-08 07:14:00,
2013-08-08 03:17:00,72.5,69.4,30.06,South,188,0.0,1.0,90,0.52,,,0.07,Wunderground v.1.15,2013-08-08 07:17:00,
2013-08-08 03:18:00,72.5,69.4,30.06,South,188,0.0,1.0,90,1.11,,,0.09,Wunderground v.1.15,2013-08-08 07:18:00,
2013-08-08 03:19:00,72.5,69.4,30.06,South,188,0.0,1.0,90,1.01,,,0.11,Wunderground v.1.15,2013-08-08 07:19:00,
2013-08-08 03:23:00,72.5,69.4,30.06,South,188,0.0,2.0,90,0.45,,,0.15,Wunderground v.1.15,2013-08-08 07:23:00,
2013-08-08 03:24:00,72.5,69.4,30.06,South,188,0.0,2.0,90,0.27,,,0.15,Wunderground v.1.15,2013-08-08 07:24:00,
2013-08-08 03:25:00,72.3,69.2,30.06,South,188,0.0,2.0,90,0.16,,,0.15,Wunderground v.1.15,2013-08-08 07:25:00,
2013-08-08 03:28:00,72.3,69.2,30.05,South,188,0.0,2.0,90,0.09,,,0.15,Wunderground v.1.15,2013-08-08 07:28:00,
2013-08-08 03:29:00,72.3,69.2,30.06,South,188,0.0,2.0,90,0.08,,,0.15,Wunderground v.1.15,2013-08-08 07:29:00,
2013-08-08 03:30:00,72.3,69.2,30.05,South,188,0.0,2.0,90,0.07,,,0.16,Wunderground v.1.15,2013-08-08 07:30:00,
2013-08-08 03:33:00,72.3,69.5,30.05,South,188,0.0,0.0,91,0.07,,,0.16,Wunderground v.1.15,2013-08-08 07:33:00,
2013-08-08 03:34:00,72.3,69.5,30.05,South,188,0.0,0.0,91,0.07,,,0.16,Wunderground v.1.15,2013-08-08 07:34:00,
2013-08-08 03:36:00,72.3,69.5,30.06,South,188,0.0,0.0,91,0.07,,,0.16,Wunderground v.1.15,2013-08-08 07:36:00,
2013-08-08 03:39:00,72.3,69.5,30.05,South,188,0.0,0.0,91,0.09,,,0.17,Wunderground v.1.15,2013-08-08 07:39:00,
2013-08-08 03:41:00,72.3,69.5,30.05,South,188,0.0,1.0,91,0.09,,,0.17,Wunderground v.1.15,2013-08-08 07:41:00,
2013-08-08 03:44:00,72.1,69.3,30.05,South,188,0.0,0.0,91,0.08,,,0.17,Wunderground v.1.15,2013-08-08 07:44:00,
2013-08-08 03:45:00,72.1,69.3,30.05,South,188,0.0,0.0,91,0.07,,,0.17,Wunderground v.1.15,2013-08-08 07:45:00,
2013-08-08 03:47:00,72.1,69.3,30.05,South,188,0.0,0.0,91,0.06,,,0.17,Wunderground v.1.15,2013-08-08 07:47:00,
2013-08-08 03:50:00,72.1,69.3,30.05,South,188,0.0,0.0,91,0.05,,,0.17,Wunderground v.1.15,2013-08-08 07:50:00,
2013-08-08 03:52:00,72.1,69.3,30.05,South,188,0.0,0.0,91,0.04,,,0.17,Wunderground v.1.15,2013-08-08 07:52:00,
2013-08-08 03:55:00,72.1,69.6,30.05,South,188,0.0,0.0,92,0.04,,,0.18,Wunderground v.1.15,2013-08-08 07:55:00,
2013-08-08 03:56:00,72.1,69.6,30.05,South,188,0.0,0.0,92,0.04,,,0.18,Wunderground v.1.15,2013-08-08 07:56:00,
2013-08-08 03:57:00,72.1,69.6,30.05,South,188,0.0,0.0,92,0.04,,,0.18,Wunderground v.1.15,2013-08-08 07:57:00,
2013-08-08 04:01:00,72.1,69.6,30.06,South,188,0.0,0.0,92,0.04,,,0.18,Wunderground v.1.15,2013-08-08 08:01:00,
2013-08-08 04:02:00,72.1,69.6,30.05,South,188,0.0,0.0,92,0.04,,,0.18,Wunderground v.1.15,2013-08-08 08:02:00,
2013-08-08 04:06:00,72.1,69.6,30.06,SSW,205,1.0,2.0,92,0.26,,,0.19,Wunderground v.1.15,2013-08-08 08:06:00,
2013-08-08 04:07:00,72.0,69.5,30.06,SSW,205,0.0,2.0,92,0.81,,,0.21,Wunderground v.1.15,2013-08-08 08:07:00,
2013-08-08 04:11:00,72.0,69.5,30.05,SSW,198,1.0,2.0,92,2.46,,,0.29,Wunderground v.1.15,2013-08-08 08:11:00,
2013-08-08 04:12:00,72.0,69.5,30.05,SSW,198,0.0,0.0,92,1.72,,,0.30,Wunderground v.1.15,2013-08-08 08:12:00,
2013-08-08 04:13:00,72.0,69.5,30.05,SSW,198,0.0,0.0,92,0.89,,,0.31,Wunderground v.1.15,2013-08-08 08:13:00,
2013-08-08 04:16:00,71.8,69.3,30.05,SSW,198,0.0,1.0,92,0.40,,,0.35,Wunderground v.1.15,2013-08-08 08:16:00,
2013-08-08 04:17:00,71.8,69.3,30.05,SSW,198,0.0,1.0,92,0.26,,,0.35,Wunderground v.1.15,2013-08-08 08:17:00,
2013-08-08 04:18:00,71.6,69.2,30.05,SSW,198,0.0,1.0,92,0.21,,,0.35,Wunderground v.1.15,2013-08-08 08:18:00,
2013-08-08 04:21:00,71.6,69.2,30.05,SSW,198,0.0,1.0,92,0.14,,,0.36,Wunderground v.1.15,2013-08-08 08:21:00,
2013-08-08 04:22:00,71.6,69.2,30.05,SSW,198,0.0,0.0,92,0.14,,,0.36,Wunderground v.1.15,2013-08-08 08:22:00,
2013-08-08 04:23:00,71.6,69.2,30.05,SSW,198,0.0,0.0,92,0.20,,,0.37,Wunderground v.1.15,2013-08-08 08:23:00,
2013-08-08 04:26:00,71.5,69.1,30.05,SSW,198,0.0,0.0,92,0.14,,,0.37,Wunderground v.1.15,2013-08-08 08:26:00,
2013-08-08 04:27:00,71.5,69.1,30.05,SSW,198,0.0,0.0,92,0.12,,,0.37,Wunderground v.1.15,2013-08-08 08:27:00,
2013-08-08 04:28:00,71.5,69.1,30.05,SSW,198,0.0,0.0,92,0.11,,,0.38,Wunderground v.1.15,2013-08-08 08:28:00,
2013-08-08 04:32:00,71.5,69.4,30.05,SSW,198,0.0,0.0,93,0.11,,,0.38,Wunderground v.1.15,2013-08-08 08:32:00,
2013-08-08 04:33:00,71.5,69.4,30.05,SSW,198,1.0,1.0,93,0.11,,,0.38,Wunderground v.1.15,2013-08-08 08:33:00,
2013-08-08 04:37:00,71.5,69.4,30.05,SSW,198,0.0,1.0,93,0.09,,,0.39,Wunderground v.1.15,2013-08-08 08:37:00,
2013-08-08 04:38:00,71.5,69.4,30.05,SSW,198,0.0,1.0,93,0.09,,,0.39,Wunderground v.1.15,2013-08-08 08:38:00,
2013-08-08 04:42:00,71.3,69.2,30.04,SSW,198,0.0,0.0,93,0.10,,,0.40,Wunderground v.1.15,2013-08-08 08:42:00,
2013-08-08 04:43:00,71.3,69.2,30.05,SSW,198,0.0,0.0,93,0.10,,,0.40,Wunderground v.1.15,2013-08-08 08:43:00,
2013-08-08 04:44:00,71.3,69.2,30.05,SSW,198,0.0,0.0,93,0.10,,,0.40,Wunderground v.1.15,2013-08-08 08:44:00,
2013-08-08 04:47:00,71.3,69.2,30.04,SSW,198,0.0,2.0,93,0.09,,,0.40,Wunderground v.1.15,2013-08-08 08:47:00,
2013-08-08 04:48:00,71.3,69.2,30.05,SSW,198,1.0,2.0,93,0.08,,,0.40,Wunderground v.1.15,2013-08-08 08:48:00,
2013-08-08 04:49:00,71.3,69.2,30.05,SSW,198,0.0,2.0,93,0.07,,,0.40,Wunderground v.1.15,2013-08-08 08:49:00,
2013-08-08 04:52:00,71.3,69.2,30.05,SSW,198,0.0,0.0,93,0.07,,,0.41,Wunderground v.1.15,2013-08-08 08:52:00,
2013-08-08 04:54:00,71.3,69.2,30.04,SSW,198,0.0,0.0,93,0.07,,,0.41,Wunderground v.1.15,2013-08-08 08:54:00,
2013-08-08 04:55:00,71.3,69.2,30.05,SSW,198,0.0,0.0,93,0.07,,,0.41,Wunderground v.1.15,2013-08-08 08:55:00,
2013-08-08 04:58:00,71.3,69.2,30.05,SSW,198,0.0,2.0,93,0.07,,,0.41,Wunderground v.1.15,2013-08-08 08:58:00,
2013-08-08 04:59:00,71.3,69.2,30.05,SSW,198,0.0,2.0,93,0.06,,,0.41,Wunderground v.1.15,2013-08-08 08:59:00,
2013-08-08 05:00:00,71.3,69.2,30.05,SSW,198,0.0,2.0,93,0.06,,,0.41,Wunderground v.1.15,2013-08-08 09:00:00,
2013-08-08 05:04:00,71.3,69.2,30.05,SSW,199,0.0,1.0,93,0.04,,,0.41,Wunderground v.1.15,2013-08-08 09:04:00,
2013-08-08 05:05:00,71.3,69.2,30.05,SSW,199,0.0,1.0,93,0.04,,,0.41,Wunderground v.1.15,2013-08-08 09:05:00,
2013-08-08 05:06:00,71.3,69.2,30.05,SSW,196,1.0,2.0,93,0.04,,,0.42,Wunderground v.1.15,2013-08-08 09:06:00,
2013-08-08 05:09:00,71.3,69.2,30.05,SSW,196,0.0,2.0,93,0.04,,,0.42,Wunderground v.1.15,2013-08-08 09:09:00,
2013-08-08 05:10:00,71.3,69.2,30.05,SSW,196,0.0,2.0,93,0.04,,,0.42,Wunderground v.1.15,2013-08-08 09:10:00,
2013-08-08 05:11:00,71.3,69.2,30.05,SSW,196,0.0,2.0,93,0.04,,,0.42,Wunderground v.1.15,2013-08-08 09:11:00,
2013-08-08 05:14:00,71.3,69.2,30.05,SSW,196,0.0,1.0,93,0.04,,,0.42,Wunderground v.1.15,2013-08-08 09:14:00,
2013-08-08 05:15:00,71.1,69.0,30.05,SSW,196,1.0,1.0,93,0.04,,,0.42,Wunderground v.1.15,2013-08-08 09:15:00,
2013-08-08 05:16:00,71.1,69.0,30.04,SSW,196,0.0,1.0,93,0.04,,,0.42,Wunderground v.1.15,2013-08-08 09:16:00,
2013-08-08 05:19:00,71.1,69.0,30.04,SSW,196,0.0,1.0,93,0.04,,,0.42,Wunderground v.1.15,2013-08-08 09:19:00,
2013-08-08 05:20:00,71.3,69.2,30.04,SSW,196,0.0,1.0,93,0.04,,,0.42,Wunderground v.1.15,2013-08-08 09:20:00,
2013-08-08 05:21:00,71.3,69.2,30.04,SSW,196,0.0,1.0,93,0.04,,,0.42,Wunderground v.1.15,2013-08-08 09:21:00,
2013-08-08 05:25:00,71.1,69.0,30.04,SSW,196,0.0,0.0,93,0.00,,,0.42,Wunderground v.1.15,2013-08-08 09:25:00,
2013-08-08 05:26:00,71.1,69.0,30.04,SSW,196,0.0,0.0,93,0.00,,,0.42,Wunderground v.1.15,2013-08-08 09:26:00,
2013-08-08 05:27:00,71.1,69.0,30.04,SSW,196,0.0,0.0,93,0.00,,,0.42,Wunderground v.1.15,2013-08-08 09:27:00,
2013-08-08 05:30:00,71.3,69.2,30.05,WNW,301,3.0,4.0,93,0.00,,,0.42,Wunderground v.1.15,2013-08-08 09:30:00,
2013-08-08 05:32:00,71.3,69.2,30.05,WNW,301,3.0,3.0,93,0.00,,,0.43,Wunderground v.1.15,2013-08-08 09:32:00,
2013-08-08 05:36:00,71.1,69.0,30.05,WNW,301,0.0,3.0,93,1.70,,,0.50,Wunderground v.1.15,2013-08-08 09:36:00,
2013-08-08 05:37:00,71.3,69.2,30.05,WNW,301,0.0,3.0,93,3.49,,,0.54,Wunderground v.1.15,2013-08-08 09:37:00,
2013-08-08 05:41:00,71.3,69.5,30.05,WNW,301,0.0,3.0,94,1.19,,,0.67,Wunderground v.1.15,2013-08-08 09:41:00,
2013-08-08 05:42:00,71.3,69.5,30.05,WNW,301,0.0,0.0,94,1.25,,,0.69,Wunderground v.1.15,2013-08-08 09:42:00,
2013-08-08 05:43:00,71.3,69.5,30.05,WNW,301,0.0,0.0,94,1.75,,,0.72,Wunderground v.1.15,2013-08-08 09:43:00,
2013-08-08 05:47:00,71.1,69.3,30.05,WNW,301,0.0,1.0,94,2.30,,,0.81,Wunderground v.1.15,2013-08-08 09:47:00,
2013-08-08 05:48:00,71.1,69.3,30.05,WNW,301,0.0,1.0,94,0.42,,,0.81,Wunderground v.1.15,2013-08-08 09:48:00,
2013-08-08 05:52:00,71.1,69.3,30.05,WNW,301,0.0,0.0,94,0.18,,,0.82,Wunderground v.1.15,2013-08-08 09:52:00,
2013-08-08 05:53:00,71.1,69.3,30.05,WNW,301,1.0,1.0,94,0.18,,,0.82,Wunderground v.1.15,2013-08-08 09:53:00,
2013-08-08 05:54:00,71.3,69.5,30.05,WNW,301,0.0,1.0,94,0.14,,,0.82,Wunderground v.1.15,2013-08-08 09:54:00,
2013-08-08 05:57:00,71.3,69.5,30.05,WNW,301,0.0,1.0,94,0.08,,,0.82,Wunderground v.1.15,2013-08-08 09:57:00,
2013-08-08 05:58:00,71.3,69.5,30.05,WNW,301,0.0,1.0,94,0.07,,,0.82,Wunderground v.1.15,2013-08-08 09:58:00,
2013-08-08 05:59:00,71.3,69.5,30.05,WNW,301,0.0,1.0,94,0.07,,,0.82,Wunderground v.1.15,2013-08-08 09:59:00,
2013-08-08 06:02:00,71.3,69.5,30.05,WNW,301,0.0,0.0,94,0.05,,,0.82,Wunderground v.1.15,2013-08-08 10:02:00,
2013-08-08 06:03:00,71.3,69.5,30.05,WNW,301,0.0,0.0,94,0.05,,,0.82,Wunderground v.1.15,2013-08-08 10:03:00,
2013-08-08 06:04:00,71.3,69.5,30.05,WNW,301,0.0,0.0,94,0.04,,,0.82,Wunderground v.1.15,2013-08-08 10:04:00,
2013-08-08 06:07:00,71.3,69.5,30.05,WNW,301,0.0,0.0,94,0.00,,,0.82,Wunderground v.1.15,2013-08-08 10:07:00,
2013-08-08 06:08:00,71.3,69.5,30.05,WNW,301,0.0,0.0,94,0.00,,,0.82,Wunderground v.1.15,2013-08-08 10:08:00,
2013-08-08 06:10:00,71.3,69.5,30.05,WNW,301,0.0,0.0,94,0.00,,,0.82,Wunderground v.1.15,2013-08-08 10:10:00,
2013-08-08 06:13:00,71.3,69.5,30.05,WNW,301,0.0,0.0,94,0.00,,,0.82,Wunderground v.1.15,2013-08-08 10:13:00,
2013-08-08 06:15:00,71.3,69.5,30.05,WNW,301,0.0,0.0,94,0.00,,,0.82,Wunderground v.1.15,2013-08-08 10:15:00,
2013-08-08 06:18:00,71.3,69.5,30.05,WNW,301,0.0,0.0,94,0.00,,,0.82,Wunderground v.1.15,2013-08-08 10:18:00,
2013-08-08 06:19:00,71.3,69.5,30.05,WNW,301,0.0,0.0,94,0.00,,,0.82,Wunderground v.1.15,2013-08-08 10:19:00,
2013-08-08 06:20:00,71.3,69.5,30.05,WNW,301,0.0,0.0,94,0.00,,,0.82,Wunderground v.1.15,2013-08-08 10:20:00,
2013-08-08 06:23:00,71.3,69.5,30.05,WNW,301,0.0,0.0,94,0.00,,,0.82,Wunderground v.1.15,2013-08-08 10:23:00,
2013-08-08 06:24:00,71.3,69.5,30.05,WNW,301,0.0,0.0,94,0.00,,,0.82,Wunderground v.1.15,2013-08-08 10:24:00,
2013-08-08 06:25:00,71.3,69.5,30.06,WNW,301,0.0,0.0,94,0.00,,,0.82,Wunderground v.1.15,2013-08-08 10:25:00,
2013-08-08 06:26:00,71.3,69.5,30.05,WNW,301,0.0,0.0,94,0.00,,,0.82,Wunderground v.1.15,2013-08-08 10:26:00,
2013-08-08 06:28:00,71.3,69.5,30.06,WNW,301,0.0,0.0,94,0.00,,,0.82,Wunderground v.1.15,2013-08-08 10:28:00,
2013-08-08 06:29:00,71.3,69.5,30.06,WNW,301,0.0,0.0,94,0.00,,,0.82,Wunderground v.1.15,2013-08-08 10:29:00,
2013-08-08 06:30:00,71.3,69.5,30.05,WNW,301,0.0,0.0,94,0.00,,,0.82,Wunderground v.1.15,2013-08-08 10:30:00,
2013-08-08 06:31:00,71.3,69.5,30.05,WNW,301,0.0,0.0,94,0.00,,,0.82,Wunderground v.1.15,2013-08-08 10:31:00,
2013-08-08 06:34:00,71.3,69.5,30.05,WNW,301,0.0,0.0,94,0.00,,,0.82,Wunderground v.1.15,2013-08-08 10:34:00,
2013-08-08 06:36:00,71.5,69.7,30.05,WNW,301,0.0,0.0,94,0.00,,,0.82,Wunderground v.1.15,2013-08-08 10:36:00,
2013-08-08 06:37:00,71.5,69.7,30.05,WNW,301,0.0,0.0,94,0.00,,,0.82,Wunderground v.1.15,2013-08-08 10:37:00,
2013-08-08 06:39:00,71.5,69.7,30.06,WNW,301,0.0,0.0,94,0.00,,,0.82,Wunderground v.1.15,2013-08-08 10:39:00,
2013-08-08 06:41:00,71.5,69.7,30.06,WNW,301,0.0,0.0,94,0.00,,,0.82,Wunderground v.1.15,2013-08-08 10:41:00,
2013-08-08 06:42:00,71.5,69.7,30.06,WNW,301,0.0,0.0,94,0.00,,,0.82,Wunderground v.1.15,2013-08-08 10:42:00,
2013-08-08 06:44:00,71.5,69.7,30.06,WNW,301,0.0,0.0,94,0.00,,,0.82,Wunderground v.1.15,2013-08-08 10:44:00,
2013-08-08 06:46:00,71.5,69.7,30.05,WNW,301,0.0,0.0,94,0.00,,,0.82,Wunderground v.1.15,2013-08-08 10:46:00,
2013-08-08 06:47:00,71.5,69.7,30.06,WNW,301,0.0,0.0,94,0.00,,,0.82,Wunderground v.1.15,2013-08-08 10:47:00,
2013-08-08 06:49:00,71.5,69.7,30.05,WNW,301,0.0,0.0,94,0.00,,,0.82,Wunderground v.1.15,2013-08-08 10:49:00,
2013-08-08 06:50:00,71.5,69.7,30.06,WNW,301,0.0,0.0,94,0.00,,,0.82,Wunderground v.1.15,2013-08-08 10:50:00,
2013-08-08 06:51:00,71.5,69.7,30.06,WNW,301,0.0,0.0,94,0.00,,,0.82,Wunderground v.1.15,2013-08-08 10:51:00,
2013-08-08 06:52:00,71.5,69.7,30.06,WNW,301,0.0,0.0,94,0.00,,,0.82,Wunderground v.1.15,2013-08-08 10:52:00,
2013-08-08 06:53:00,71.5,69.7,30.06,WNW,301,0.0,0.0,94,0.00,,,0.82,Wunderground v.1.15,2013-08-08 10:53:00,
2013-08-08 06:55:00,71.6,69.8,30.05,WNW,301,0.0,0.0,94,0.00,,,0.82,Wunderground v.1.15,2013-08-08 10:55:00,
2013-08-08 06:57:00,71.6,69.8,30.05,WNW,301,0.0,0.0,94,0.00,,,0.82,Wunderground v.1.15,2013-08-08 10:57:00,
2013-08-08 06:58:00,71.6,69.8,30.05,WNW,301,0.0,0.0,94,0.00,,,0.82,Wunderground v.1.15,2013-08-08 10:58:00,
2013-08-08 07:00:00,71.6,69.8,30.06,WNW,301,0.0,0.0,94,0.00,,,0.82,Wunderground v.1.15,2013-08-08 11:00:00,
2013-08-08 07:02:00,71.6,69.8,30.06,WNW,301,0.0,0.0,94,0.00,,,0.82,Wunderground v.1.15,2013-08-08 11:02:00,
2013-08-08 07:03:00,71.6,69.8,30.06,WNW,301,0.0,0.0,94,0.00,,,0.82,Wunderground v.1.15,2013-08-08 11:03:00,
2013-08-08 07:05:00,71.6,69.8,30.06,WNW,301,0.0,0.0,94,0.00,,,0.82,Wunderground v.1.15,2013-08-08 11:05:00,
2013-08-08 07:07:00,71.6,69.8,30.06,WNW,301,0.0,1.0,94,0.00,,,0.82,Wunderground v.1.15,2013-08-08 11:07:00,
2013-08-08 07:08:00,71.6,69.8,30.06,WNW,301,0.0,1.0,94,0.00,,,0.82,Wunderground v.1.15,2013-08-08 11:08:00,
2013-08-08 07:09:00,71.8,70.0,30.06,WNW,301,0.0,1.0,94,0.00,,,0.82,Wunderground v.1.15,2013-08-08 11:09:00,
2013-08-08 07:10:00,71.8,70.0,30.06,WNW,301,0.0,1.0,94,0.00,,,0.82,Wunderground v.1.15,2013-08-08 11:10:00,
2013-08-08 07:12:00,71.8,70.0,30.06,WNW,301,0.0,0.0,94,0.00,,,0.82,Wunderground v.1.15,2013-08-08 11:12:00,
2013-08-08 07:13:00,71.8,70.0,30.06,WNW,301,0.0,0.0,94,0.00,,,0.82,Wunderground v.1.15,2013-08-08 11:13:00,
2013-08-08 07:14:00,71.8,70.0,30.06,WNW,301,0.0,0.0,94,0.00,,,0.82,Wunderground v.1.15,2013-08-08 11:14:00,
2013-08-08 07:16:00,71.8,70.3,30.06,WNW,301,0.0,0.0,95,0.00,,,0.82,Wunderground v.1.15,2013-08-08 11:16:00,
2013-08-08 07:17:00,71.8,70.3,30.06,WNW,301,0.0,0.0,95,0.00,,,0.82,Wunderground v.1.15,2013-08-08 11:17:00,
2013-08-08 07:18:00,71.8,70.3,30.06,WNW,301,0.0,0.0,95,0.00,,,0.82,Wunderground v.1.15,2013-08-08 11:18:00,
2013-08-08 07:20:00,71.8,70.3,30.06,WNW,301,0.0,0.0,95,0.00,,,0.82,Wunderground v.1.15,2013-08-08 11:20:00,
2013-08-08 07:21:00,72.0,70.5,30.06,WNW,301,0.0,0.0,95,0.00,,,0.82,Wunderground v.1.15,2013-08-08 11:21:00,
2013-08-08 07:22:00,72.0,70.5,30.06,WNW,301,0.0,0.0,95,0.00,,,0.82,Wunderground v.1.15,2013-08-08 11:22:00,
2013-08-08 07:24:00,72.0,70.5,30.06,WNW,301,0.0,0.0,95,0.00,,,0.82,Wunderground v.1.15,2013-08-08 11:24:00,
2013-08-08 07:26:00,72.0,70.5,30.06,WNW,301,0.0,0.0,95,0.00,,,0.82,Wunderground v.1.15,2013-08-08 11:26:00,
2013-08-08 07:27:00,72.0,70.5,30.06,WNW,301,0.0,0.0,95,0.00,,,0.82,Wunderground v.1.15,2013-08-08 11:27:00,
2013-08-08 07:28:00,72.0,70.5,30.06,WNW,301,0.0,0.0,95,0.00,,,0.82,Wunderground v.1.15,2013-08-08 11:28:00,
2013-08-08 07:29:00,72.0,70.5,30.06,WNW,301,0.0,0.0,95,0.00,,,0.82,Wunderground v.1.15,2013-08-08 11:29:00,
2013-08-08 07:31:00,72.0,70.5,30.06,WNW,301,0.0,0.0,95,0.00,,,0.82,Wunderground v.1.15,2013-08-08 11:31:00,
2013-08-08 07:33:00,72.0,70.5,30.06,WNW,301,0.0,0.0,95,0.00,,,0.82,Wunderground v.1.15,2013-08-08 11:33:00,
2013-08-08 07:34:00,72.0,70.5,30.06,WNW,301,0.0,0.0,95,0.00,,,0.82,Wunderground v.1.15,2013-08-08 11:34:00,
2013-08-08 07:36:00,72.0,70.5,30.06,WNW,301,0.0,0.0,95,0.00,,,0.82,Wunderground v.1.15,2013-08-08 11:36:00,
2013-08-08 07:38:00,72.0,70.5,30.06,WNW,301,0.0,0.0,95,0.00,,,0.00,Wunderground v.1.15,2013-08-08 11:38:00,
2013-08-08 07:40:00,72.0,70.5,30.06,WNW,301,1.0,2.0,95,0.00,,,0.00,Wunderground v.1.15,2013-08-08 11:40:00,
2013-08-08 07:41:00,72.0,70.5,30.06,WNW,301,0.0,2.0,95,0.00,,,0.00,Wunderground v.1.15,2013-08-08 11:41:00,
2013-08-08 07:43:00,72.0,70.5,30.06,WNW,301,0.0,0.0,95,0.00,,,0.00,Wunderground v.1.15,2013-08-08 11:43:00,
2013-08-08 07:44:00,72.0,70.5,30.06,WNW,301,0.0,0.0,95,0.00,,,0.00,Wunderground v.1.15,2013-08-08 11:44:00,
2013-08-08 07:45:00,72.0,70.5,30.06,WNW,301,0.0,0.0,95,0.00,,,0.00,Wunderground v.1.15,2013-08-08 11:45:00,
2013-08-08 07:47:00,72.0,70.5,30.06,WNW,301,0.0,0.0,95,0.00,,,0.00,Wunderground v.1.15,2013-08-08 11:47:00,
2013-08-08 07:49:00,72.0,70.5,30.06,WNW,301,0.0,0.0,95,0.00,,,0.00,Wunderground v.1.15,2013-08-08 11:49:00,
2013-08-08 07:50:00,72.0,70.5,30.06,WNW,301,0.0,0.0,95,0.00,,,0.00,Wunderground v.1.15,2013-08-08 11:50:00,
2013-08-08 07:53:00,72.0,70.5,30.06,WNW,301,0.0,0.0,95,0.00,,,0.00,Wunderground v.1.15,2013-08-08 11:53:00,
2013-08-08 07:54:00,72.0,70.5,30.06,WNW,301,0.0,0.0,95,0.00,,,0.00,Wunderground v.1.15,2013-08-08 11:54:00,
2013-08-08 07:55:00,72.0,70.5,30.06,WNW,301,0.0,0.0,95,0.00,,,0.00,Wunderground v.1.15,2013-08-08 11:55:00,
2013-08-08 07:58:00,72.0,70.5,30.06,WNW,301,0.0,0.0,95,0.00,,,0.00,Wunderground v.1.15,2013-08-08 11:58:00,
2013-08-08 07:59:00,72.0,70.5,30.06,WNW,301,0.0,0.0,95,0.00,,,0.00,Wunderground v.1.15,2013-08-08 11:59:00,
2013-08-08 08:01:00,72.0,70.5,30.06,WNW,301,0.0,0.0,95,0.00,,,0.00,Wunderground v.1.15,2013-08-08 12:01:00,
2013-08-08 08:03:00,72.0,70.5,30.06,WNW,301,0.0,0.0,95,0.00,,,0.00,Wunderground v.1.15,2013-08-08 12:03:00,
2013-08-08 08:04:00,72.0,70.5,30.06,WNW,301,0.0,0.0,95,0.00,,,0.00,Wunderground v.1.15,2013-08-08 12:04:00,
2013-08-08 08:05:00,72.0,70.5,30.06,WNW,301,0.0,0.0,95,0.00,,,0.00,Wunderground v.1.15,2013-08-08 12:05:00,
2013-08-08 08:06:00,72.0,70.5,30.06,WNW,301,0.0,0.0,95,0.00,,,0.00,Wunderground v.1.15,2013-08-08 12:06:00,
2013-08-08 08:08:00,72.0,70.5,30.06,WNW,301,0.0,0.0,95,0.00,,,0.00,Wunderground v.1.15,2013-08-08 12:08:00,
2013-08-08 08:10:00,72.0,70.5,30.06,WNW,301,0.0,0.0,95,0.00,,,0.00,Wunderground v.1.15,2013-08-08 12:10:00,
2013-08-08 08:11:00,72.0,70.5,30.06,WNW,301,0.0,0.0,95,0.00,,,0.00,Wunderground v.1.15,2013-08-08 12:11:00,
2013-08-08 08:14:00,72.0,70.5,30.06,WNW,301,0.0,0.0,95,0.00,,,0.00,Wunderground v.1.15,2013-08-08 12:14:00,
2013-08-08 08:15:00,72.0,70.5,30.06,WNW,301,0.0,0.0,95,0.00,,,0.00,Wunderground v.1.15,2013-08-08 12:15:00,
2013-08-08 08:17:00,72.0,70.5,30.06,WNW,301,0.0,0.0,95,0.00,,,0.00,Wunderground v.1.15,2013-08-08 12:17:00,
2013-08-08 08:19:00,72.0,70.5,30.06,WNW,301,0.0,0.0,95,0.00,,,0.00,Wunderground v.1.15,2013-08-08 12:19:00,
2013-08-08 08:20:00,72.0,70.5,30.06,WNW,301,0.0,0.0,95,0.00,,,0.00,Wunderground v.1.15,2013-08-08 12:20:00,
2013-08-08 08:22:00,72.1,70.6,30.06,WNW,301,0.0,0.0,95,0.00,,,0.00,Wunderground v.1.15,2013-08-08 12:22:00,
2013-08-08 08:24:00,72.3,70.8,30.06,WNW,301,0.0,0.0,95,0.00,,,0.00,Wunderground v.1.15,2013-08-08 12:24:00,
2013-08-08 08:25:00,72.3,70.8,30.06,WNW,301,0.0,0.0,95,0.00,,,0.00,Wunderground v.1.15,2013-08-08 12:25:00,
2013-08-08 08:26:00,72.3,70.8,30.06,WNW,301,0.0,0.0,95,0.00,,,0.00,Wunderground v.1.15,2013-08-08 12:26:00,
2013-08-08 08:27:00,72.3,70.8,30.06,WNW,301,0.0,0.0,95,0.00,,,0.00,Wunderground v.1.15,2013-08-08 12:27:00,
2013-08-08 08:30:00,72.3,70.8,30.06,WNW,301,0.0,0.0,95,0.00,,,0.00,Wunderground v.1.15,2013-08-08 12:30:00,
2013-08-08 08:31:00,72.5,71.0,30.06,WNW,301,0.0,0.0,95,0.00,,,0.00,Wunderground v.1.15,2013-08-08 12:31:00,
2013-08-08 08:32:00,72.5,71.0,30.06,WNW,301,0.0,0.0,95,0.00,,,0.00,Wunderground v.1.15,2013-08-08 12:32:00,
2013-08-08 08:35:00,72.5,71.0,30.07,WNW,301,0.0,0.0,95,0.00,,,0.00,Wunderground v.1.15,2013-08-08 12:35:00,
2013-08-08 08:36:00,72.5,71.0,30.06,WNW,301,0.0,0.0,95,0.00,,,0.00,Wunderground v.1.15,2013-08-08 12:36:00,
2013-08-08 08:38:00,72.7,71.2,30.06,WNW,301,0.0,0.0,95,0.00,,,0.00,Wunderground v.1.15,2013-08-08 12:38:00,
2013-08-08 08:41:00,72.7,71.2,30.07,WNW,301,0.0,0.0,95,0.00,,,0.00,Wunderground v.1.15,2013-08-08 12:41:00,
2013-08-08 08:42:00,72.7,71.2,30.07,WNW,301,0.0,0.0,95,0.00,,,0.00,Wunderground v.1.15,2013-08-08 12:42:00,
2013-08-08 08:43:00,72.7,71.2,30.07,WNW,301,0.0,0.0,95,0.00,,,0.00,Wunderground v.1.15,2013-08-08 12:43:00,
2013-08-08 08:46:00,72.5,70.7,30.07,WNW,284,0.0,2.0,94,0.00,,,0.00,Wunderground v.1.15,2013-08-08 12:46:00,
2013-08-08 08:47:00,72.5,70.7,30.07,WNW,284,0.0,2.0,94,0.00,,,0.00,Wunderground v.1.15,2013-08-08 12:47:00,
2013-08-08 08:48:00,72.5,70.7,30.07,WNW,284,0.0,2.0,94,0.00,,,0.00,Wunderground v.1.15,2013-08-08 12:48:00,
2013-08-08 08:51:00,72.5,71.0,30.07,WNW,284,1.0,2.0,95,0.00,,,0.00,Wunderground v.1.15,2013-08-08 12:51:00,
2013-08-08 08:52:00,72.5,70.7,30.07,WNW,284,0.0,0.0,94,0.00,,,0.00,Wunderground v.1.15,2013-08-08 12:52:00,
2013-08-08 08:53:00,72.5,70.7,30.07,WNW,284,0.0,0.0,94,0.00,,,0.00,Wunderground v.1.15,2013-08-08 12:53:00,
2013-08-08 08:57:00,72.7,71.2,30.07,WNW,284,0.0,0.0,95,0.00,,,0.00,Wunderground v.1.15,2013-08-08 12:57:00,
2013-08-08 08:58:00,72.7,71.2,30.07,WNW,284,0.0,0.0,95,0.00,,,0.00,Wunderground v.1.15,2013-08-08 12:58:00,
2013-08-08 09:02:00,72.7,71.2,30.07,WNW,284,0.0,0.0,95,0.00,,,0.00,Wunderground v.1.15,2013-08-08 13:02:00,
2013-08-08 09:03:00,72.7,71.2,30.07,WNW,284,0.0,0.0,95,0.00,,,0.00,Wunderground v.1.15,2013-08-08 13:03:00,
2013-08-08 09:07:00,73.0,71.5,30.07,WNW,284,0.0,0.0,95,0.00,,,0.00,Wunderground v.1.15,2013-08-08 13:07:00,
2013-08-08 09:08:00,73.2,71.7,30.07,WNW,284,0.0,0.0,95,0.00,,,0.00,Wunderground v.1.15,2013-08-08 13:08:00,
2013-08-08 09:09:00,73.2,71.7,30.07,WNW,284,0.0,1.0,95,0.00,,,0.00,Wunderground v.1.15,2013-08-08 13:09:00,
2013-08-08 09:12:00,73.5,72.0,30.07,WNW,284,1.0,1.0,95,0.00,,,0.00,Wunderground v.1.15,2013-08-08 13:12:00,
2013-08-08 09:13:00,73.3,71.5,30.07,WNW,284,0.0,1.0,94,0.00,,,0.00,Wunderground v.1.15,2013-08-08 13:13:00,
2013-08-08 09:14:00,73.3,71.5,30.07,WNW,284,0.0,1.0,94,0.00,,,0.00,Wunderground v.1.15,2013-08-08 13:14:00,
2013-08-08 09:17:00,73.2,71.4,30.07,WSW,238,0.0,3.0,94,0.00,,,0.00,Wunderground v.1.15,2013-08-08 13:17:00,
2013-08-08 09:18:00,73.2,71.4,30.07,WSW,238,2.0,3.0,94,0.00,,,0.00,Wunderground v.1.15,2013-08-08 13:18:00,
2013-08-08 09:19:00,73.2,71.4,30.07,WSW,238,0.0,3.0,94,0.00,,,0.00,Wunderground v.1.15,2013-08-08 13:19:00,
2013-08-08 09:22:00,73.3,71.5,30.06,WSW,238,0.0,0.0,94,0.00,,,0.00,Wunderground v.1.15,2013-08-08 13:22:00,
2013-08-08 09:23:00,73.3,71.5,30.07,WSW,238,0.0,2.0,94,0.00,,,0.00,Wunderground v.1.15,2013-08-08 13:23:00,
2013-08-08 09:24:00,73.3,71.5,30.07,WSW,238,0.0,2.0,94,0.00,,,0.00,Wunderground v.1.15,2013-08-08 13:24:00,
2013-08-08 09:25:00,73.3,71.5,30.06,WSW,238,0.0,2.0,94,0.00,,,0.00,Wunderground v.1.15,2013-08-08 13:25:00,
2013-08-08 09:28:00,73.3,71.5,30.06,WSW,247,0.0,4.0,94,0.00,,,0.00,Wunderground v.1.15,2013-08-08 13:28:00,
2013-08-08 09:29:00,73.3,71.5,30.06,WSW,247,0.0,4.0,94,0.00,,,0.00,Wunderground v.1.15,2013-08-08 13:29:00,
2013-08-08 09:30:00,73.5,71.7,30.06,WSW,247,0.0,4.0,94,0.00,,,0.00,Wunderground v.1.15,2013-08-08 13:30:00,
2013-08-08 09:34:00,74.0,72.5,30.06,WSW,247,0.0,1.0,95,0.00,,,0.00,Wunderground v.1.15,2013-08-08 13:34:00,
2013-08-08 09:36:00,74.2,72.4,30.06,WSW,247,0.0,1.0,94,0.00,,,0.00,Wunderground v.1.15,2013-08-08 13:36:00,
2013-08-08 09:39:00,74.2,72.4,30.06,NNW,327,0.0,5.0,94,0.00,,,0.00,Wunderground v.1.15,2013-08-08 13:39:00,
2013-08-08 09:40:00,74.2,72.4,30.06,NNW,327,0.0,5.0,94,0.00,,,0.00,Wunderground v.1.15,2013-08-08 13:40:00,
2013-08-08 09:41:00,74.2,72.4,30.06,NNW,327,0.0,5.0,94,0.00,,,0.00,Wunderground v.1.15,2013-08-08 13:41:00,
2013-08-08 09:42:00,74.4,72.6,30.06,NW,324,0.0,2.0,94,0.00,,,0.00,Wunderground v.1.15,2013-08-08 13:42:00,
2013-08-08 09:44:00,74.4,72.6,30.06,NW,308,0.0,3.0,94,0.00,,,0.00,Wunderground v.1.15,2013-08-08 13:44:00,
2013-08-08 09:45:00,74.4,72.6,30.06,NW,308,0.0,3.0,94,0.00,,,0.00,Wunderground v.1.15,2013-08-08 13:45:00,
2013-08-08 09:46:00,74.4,72.6,30.06,NW,308,0.0,3.0,94,0.00,,,0.00,Wunderground v.1.15,2013-08-08 13:46:00,
2013-08-08 09:47:00,74.6,72.8,30.06,NW,309,0.0,3.0,94,0.00,,,0.00,Wunderground v.1.15,2013-08-08 13:47:00,
2013-08-08 09:49:00,74.6,72.8,30.06,WSW,249,1.0,4.0,94,0.00,,,0.00,Wunderground v.1.15,2013-08-08 13:49:00,
2013-08-08 09:50:00,74.6,72.8,30.06,WSW,249,0.0,4.0,94,0.00,,,0.00,Wunderground v.1.15,2013-08-08 13:50:00,
2013-08-08 09:51:00,74.6,72.4,30.06,West,259,0.0,4.0,93,0.00,,,0.00,Wunderground v.1.15,2013-08-08 13:51:00,
2013-08-08 09:53:00,74.7,72.5,30.06,West,259,0.0,1.0,93,0.00,,,0.00,Wunderground v.1.15,2013-08-08 13:53:00,
2013-08-08 09:55:00,74.9,72.7,30.06,WSW,249,4.0,4.0,93,0.00,,,0.00,Wunderground v.1.15,2013-08-08 13:55:00,
2013-08-08 09:56:00,74.9,72.7,30.06,NW,315,4.0,4.0,93,0.00,,,0.00,Wunderground v.1.15,2013-08-08 13:56:00,
2013-08-08 09:57:00,74.9,72.7,30.06,NW,315,2.0,4.0,93,0.00,,,0.00,Wunderground v.1.15,2013-08-08 13:57:00,
2013-08-08 09:59:00,74.9,72.7,30.06,NW,321,1.0,6.0,93,0.00,,,0.00,Wunderground v.1.15,2013-08-08 13:59:00,
2013-08-08 10:00:00,74.9,72.7,30.06,WSW,250,0.0,6.0,93,0.00,,,0.00,Wunderground v.1.15,2013-08-08 14:00:00,
2013-08-08 10:01:00,74.9,72.7,30.06,WSW,252,0.0,6.0,93,0.00,,,0.00,Wunderground v.1.15,2013-08-08 14:01:00,
2013-08-08 10:02:00,74.9,72.7,30.06,WSW,254,1.0,2.0,93,0.00,,,0.00,Wunderground v.1.15,2013-08-08 14:02:00,
2013-08-08 10:04:00,75.1,72.9,30.06,WNW,292,0.0,4.0,93,0.00,,,0.00,Wunderground v.1.15,2013-08-08 14:04:00,
2013-08-08 10:05:00,75.1,72.9,30.06,WNW,292,0.0,4.0,93,0.00,,,0.00,Wunderground v.1.15,2013-08-08 14:05:00,
2013-08-08 10:06:00,75.3,73.1,30.06,WNW,295,3.0,4.0,93,0.00,,,0.00,Wunderground v.1.15,2013-08-08 14:06:00,
2013-08-08 10:08:00,75.3,72.8,30.06,WSW,245,3.0,4.0,92,0.00,,,0.00,Wunderground v.1.15,2013-08-08 14:08:00,
2013-08-08 10:09:00,75.1,72.6,30.06,SW,215,3.0,7.0,92,0.00,,,0.00,Wunderground v.1.15,2013-08-08 14:09:00,
2013-08-08 10:11:00,74.9,72.1,30.06,SW,235,0.0,7.0,91,0.00,,,0.00,Wunderground v.1.15,2013-08-08 14:11:00,
2013-08-08 10:13:00,74.9,72.1,30.06,SW,228,1.0,4.0,91,0.00,,,0.00,Wunderground v.1.15,2013-08-08 14:13:00,
2013-08-08 10:14:00,75.1,72.3,30.06,SW,228,3.0,4.0,91,0.00,,,0.00,Wunderground v.1.15,2013-08-08 14:14:00,
2013-08-08 10:15:00,75.1,72.3,30.06,West,269,1.0,4.0,91,0.00,,,0.00,Wunderground v.1.15,2013-08-08 14:15:00,
2013-08-08 10:16:00,75.1,72.3,30.06,SW,227,0.0,6.0,91,0.00,,,0.00,Wunderground v.1.15,2013-08-08 14:16:00,
2013-08-08 10:18:00,75.3,72.5,30.06,West,263,0.0,6.0,91,0.00,,,0.00,Wunderground v.1.15,2013-08-08 14:18:00,
2013-08-08 10:19:00,75.3,72.2,30.06,West,263,1.0,6.0,90,0.00,,,0.00,Wunderground v.1.15,2013-08-08 14:19:00,
2013-08-08 10:20:00,75.3,72.2,30.06,SW,230,4.0,6.0,90,0.00,,,0.00,Wunderground v.1.15,2013-08-08 14:20:00,
2013-08-08 10:21:00,75.3,72.2,30.06,South,184,0.0,6.0,90,0.00,,,0.00,Wunderground v.1.15,2013-08-08 14:21:00,
2013-08-08 10:23:00,75.3,72.2,30.06,West,263,1.0,4.0,90,0.00,,,0.00,Wunderground v.1.15,2013-08-08 14:23:00,
2013-08-08 10:25:00,75.4,72.3,30.06,WNW,292,0.0,4.0,90,0.00,,,0.00,Wunderground v.1.15,2013-08-08 14:25:00,
2013-08-08 10:26:00,75.4,72.3,30.06,WNW,292,3.0,4.0,90,0.00,,,0.00,Wunderground v.1.15,2013-08-08 14:26:00,
2013-08-08 10:27:00,75.4,72.3,30.06,WSW,248,1.0,4.0,90,0.00,,,0.00,Wunderground v.1.15,2013-08-08 14:27:00,
2013-08-08 10:28:00,75.4,72.3,30.06,WSW,248,0.0,4.0,90,0.00,,,0.00,Wunderground v.1.15,2013-08-08 14:28:00,
2013-08-08 10:30:00,75.6,72.5,30.06,WSW,248,0.0,4.0,90,0.00,,,0.00,Wunderground v.1.15,2013-08-08 14:30:00,
2013-08-08 10:31:00,75.6,72.5,30.06,WSW,248,0.0,4.0,90,0.00,,,0.00,Wunderground v.1.15,2013-08-08 14:31:00,
2013-08-08 10:32:00,75.6,72.5,30.06,WSW,255,1.0,1.0,90,0.00,,,0.00,Wunderground v.1.15,2013-08-08 14:32:00,
2013-08-08 10:34:00,75.8,72.3,30.06,SW,229,2.0,4.0,89,0.00,,,0.00,Wunderground v.1.15,2013-08-08 14:34:00,
2013-08-08 10:36:00,75.8,72.3,30.06,NW,317,4.0,4.0,89,0.00,,,0.00,Wunderground v.1.15,2013-08-08 14:36:00,
2013-08-08 10:37:00,76.0,72.2,30.06,NW,316,0.0,5.0,88,0.00,,,0.00,Wunderground v.1.15,2013-08-08 14:37:00,
2013-08-08 10:40:00,76.1,72.3,30.06,NW,315,0.0,5.0,88,0.00,,,0.00,Wunderground v.1.15,2013-08-08 14:40:00,
2013-08-08 10:41:00,76.3,72.5,30.06,NW,317,0.0,5.0,88,0.00,,,0.00,Wunderground v.1.15,2013-08-08 14:41:00,
2013-08-08 10:42:00,76.3,72.5,30.06,NW,309,0.0,1.0,88,0.00,,,0.00,Wunderground v.1.15,2013-08-08 14:42:00,
2013-08-08 10:46:00,76.5,72.3,30.06,West,259,1.0,5.0,87,0.00,,,0.00,Wunderground v.1.15,2013-08-08 14:46:00,
2013-08-08 10:47:00,76.5,72.3,30.06,West,261,2.0,5.0,87,0.00,,,0.00,Wunderground v.1.15,2013-08-08 14:47:00,
2013-08-08 10:48:00,76.5,72.3,30.06,West,261,0.0,5.0,87,0.00,,,0.00,Wunderground v.1.15,2013-08-08 14:48:00,
2013-08-08 10:51:00,76.7,72.2,30.06,WSW,244,0.0,5.0,86,0.00,,,0.00,Wunderground v.1.15,2013-08-08 14:51:00,
2013-08-08 10:52:00,76.8,72.3,30.06,WSW,244,0.0,1.0,86,0.00,,,0.00,Wunderground v.1.15,2013-08-08 14:52:00,
2013-08-08 10:53:00,77.2,72.7,30.06,WSW,244,1.0,1.0,86,0.00,,,0.00,Wunderground v.1.15,2013-08-08 14:53:00,
2013-08-08 10:54:00,77.2,72.7,30.06,WSW,244,0.0,2.0,86,0.00,,,0.00,Wunderground v.1.15,2013-08-08 14:54:00,
2013-08-08 10:56:00,77.6,73.1,30.06,WSW,244,0.0,2.0,86,0.00,,,0.00,Wunderground v.1.15,2013-08-08 14:56:00,
2013-08-08 10:57:00,77.7,72.8,30.06,WSW,244,0.0,2.0,85,0.00,,,0.00,Wunderground v.1.15,2013-08-08 14:57:00,
2013-08-08 10:59:00,77.7,72.8,30.06,NW,305,3.0,6.0,85,0.00,,,0.00,Wunderground v.1.15,2013-08-08 14:59:00,
2013-08-08 11:01:00,77.6,72.0,30.06,NW,319,1.0,7.0,83,0.00,,,0.00,Wunderground v.1.15,2013-08-08 15:01:00,
2013-08-08 11:02:00,77.6,72.0,30.06,NW,318,3.0,3.0,83,0.00,,,0.00,Wunderground v.1.15,2013-08-08 15:02:00,
2013-08-08 11:03:00,77.6,72.0,30.06,NW,319,1.0,3.0,83,0.00,,,0.00,Wunderground v.1.15,2013-08-08 15:03:00,
2013-08-08 11:04:00,77.6,72.0,30.06,NW,319,0.0,3.0,83,0.00,,,0.00,Wunderground v.1.15,2013-08-08 15:04:00,
2013-08-08 11:07:00,77.9,72.3,30.06,NW,319,3.0,3.0,83,0.00,,,0.00,Wunderground v.1.15,2013-08-08 15:07:00,
2013-08-08 11:08:00,77.9,72.3,30.06,NW,319,4.0,4.0,83,0.00,,,0.00,Wunderground v.1.15,2013-08-08 15:08:00,
2013-08-08 11:10:00,77.9,72.0,30.06,NW,316,0.0,4.0,82,0.00,,,0.00,Wunderground v.1.15,2013-08-08 15:10:00,
2013-08-08 11:12:00,78.1,72.2,30.06,NW,316,0.0,1.0,82,0.00,,,0.00,Wunderground v.1.15,2013-08-08 15:12:00,
2013-08-08 11:13:00,78.1,72.2,30.06,NW,316,0.0,1.0,82,0.00,,,0.00,Wunderground v.1.15,2013-08-08 15:13:00,
2013-08-08 11:14:00,78.3,72.3,30.06,NW,316,0.0,1.0,82,0.00,,,0.00,Wunderground v.1.15,2013-08-08 15:14:00,
2013-08-08 11:15:00,78.5,72.5,30.06,NW,326,0.0,3.0,82,0.00,,,0.00,Wunderground v.1.15,2013-08-08 15:15:00,
2013-08-08 11:16:00,78.6,72.6,30.06,NW,326,0.0,3.0,82,0.00,,,0.00,Wunderground v.1.15,2013-08-08 15:16:00,
2013-08-08 11:18:00,78.8,72.1,30.06,SW,222,0.0,5.0,80,0.00,,,0.00,Wunderground v.1.15,2013-08-08 15:18:00,
2013-08-08 11:19:00,79.0,72.3,30.06,SW,222,1.0,5.0,80,0.00,,,0.00,Wunderground v.1.15,2013-08-08 15:19:00,
2013-08-08 11:21:00,79.2,72.1,30.06,WSW,238,3.0,5.0,79,0.00,,,0.00,Wunderground v.1.15,2013-08-08 15:21:00,
2013-08-08 11:23:00,79.4,72.3,30.06,WSW,239,0.0,1.0,79,0.00,,,0.00,Wunderground v.1.15,2013-08-08 15:23:00,
2013-08-08 11:24:00,79.6,72.5,30.06,WSW,244,0.0,1.0,79,0.00,,,0.00,Wunderground v.1.15,2013-08-08 15:24:00,
2013-08-08 11:25:00,79.6,72.1,30.06,WNW,284,3.0,3.0,78,0.00,,,0.00,Wunderground v.1.15,2013-08-08 15:25:00,
2013-08-08 11:26:00,79.6,71.8,30.06,NW,311,0.0,5.0,77,0.00,,,0.00,Wunderground v.1.15,2013-08-08 15:26:00,
2013-08-08 11:28:00,80.1,73.0,30.06,NW,311,0.0,5.0,79,0.00,,,0.00,Wunderground v.1.15,2013-08-08 15:28:00,
2013-08-08 11:29:00,80.1,73.0,30.06,NW,310,0.0,5.0,79,0.00,,,0.00,Wunderground v.1.15,2013-08-08 15:29:00,
2013-08-08 11:30:00,79.9,72.4,30.06,SW,236,6.0,6.0,78,0.00,,,0.00,Wunderground v.1.15,2013-08-08 15:30:00,
2013-08-08 11:31:00,79.9,72.4,30.06,West,277,0.0,6.0,78,0.00,,,0.00,Wunderground v.1.15,2013-08-08 15:31:00,
2013-08-08 11:34:00,79.8,72.3,30.06,WSW,242,0.0,2.0,78,0.00,,,0.00,Wunderground v.1.15,2013-08-08 15:34:00,
2013-08-08 11:35:00,79.8,72.3,30.06,WSW,242,2.0,2.0,78,0.00,,,0.00,Wunderground v.1.15,2013-08-08 15:35:00,
2013-08-08 11:36:00,79.8,71.9,30.06,SW,220,3.0,4.0,77,0.00,,,0.00,Wunderground v.1.15,2013-08-08 15:36:00,
2013-08-08 11:39:00,79.6,71.8,30.06,SW,221,0.0,4.0,77,0.00,,,0.00,Wunderground v.1.15,2013-08-08 15:39:00,
2013-08-08 11:41:00,79.4,71.9,30.06,SW,221,0.0,4.0,78,0.00,,,0.00,Wunderground v.1.15,2013-08-08 15:41:00,
2013-08-08 11:44:00,79.6,72.1,30.06,SW,227,0.0,1.0,78,0.00,,,0.00,Wunderground v.1.15,2013-08-08 15:44:00,
2013-08-08 11:46:00,79.6,72.1,30.05,SW,227,0.0,2.0,78,0.00,,,0.00,Wunderground v.1.15,2013-08-08 15:46:00,
2013-08-08 11:47:00,79.6,72.1,30.05,SW,227,0.0,2.0,78,0.00,,,0.00,Wunderground v.1.15,2013-08-08 15:47:00,
2013-08-08 11:49:00,79.9,72.4,30.05,SW,227,0.0,2.0,78,0.00,,,0.00,Wunderground v.1.15,2013-08-08 15:49:00,
2013-08-08 11:51:00,80.1,72.6,30.05,SW,227,0.0,2.0,78,0.00,,,0.00,Wunderground v.1.15,2013-08-08 15:51:00,
2013-08-08 11:52:00,80.1,72.6,30.05,SW,227,0.0,2.0,78,0.00,,,0.00,Wunderground v.1.15,2013-08-08 15:52:00,
2013-08-08 11:55:00,80.3,72.4,30.05,SW,227,0.0,1.0,77,0.00,,,0.00,Wunderground v.1.15,2013-08-08 15:55:00,
2013-08-08 11:56:00,80.5,72.6,30.05,SW,227,0.0,1.0,77,0.00,,,0.00,Wunderground v.1.15,2013-08-08 15:56:00,
2013-08-08 11:57:00,80.5,72.6,30.05,SW,227,1.0,1.0,77,0.00,,,0.00,Wunderground v.1.15,2013-08-08 15:57:00,
2013-08-08 12:00:00,80.7,72.0,30.05,SW,227,0.0,1.0,75,0.00,,,0.00,Wunderground v.1.15,2013-08-08 16:00:00,
2013-08-08 12:02:00,80.9,72.2,30.05,SW,224,0.0,0.0,75,0.00,,,0.00,Wunderground v.1.15,2013-08-08 16:02:00,
2013-08-08 12:05:00,81.1,72.0,30.05,WSW,243,0.0,5.0,74,0.00,,,0.00,Wunderground v.1.15,2013-08-08 16:05:00,
2013-08-08 12:07:00,80.9,72.2,30.05,WSW,243,0.0,5.0,75,0.00,,,0.00,Wunderground v.1.15,2013-08-08 16:07:00,
2013-08-08 12:08:00,80.9,72.2,30.05,WSW,243,0.0,5.0,75,0.00,,,0.00,Wunderground v.1.15,2013-08-08 16:08:00,
2013-08-08 12:10:00,80.7,72.0,30.05,SSE,148,0.0,5.0,75,0.00,,,0.00,Wunderground v.1.15,2013-08-08 16:10:00,
2013-08-08 12:12:00,80.5,72.2,30.05,ESE,121,0.0,3.0,76,0.00,,,0.00,Wunderground v.1.15,2013-08-08 16:12:00,
2013-08-08 12:13:00,80.5,72.2,30.05,ESE,121,0.0,3.0,76,0.00,,,0.00,Wunderground v.1.15,2013-08-08 16:13:00,
2013-08-08 12:14:00,80.3,72.0,30.05,ESE,121,0.0,3.0,76,0.00,,,0.00,Wunderground v.1.15,2013-08-08 16:14:00,
2013-08-08 12:15:00,80.3,72.0,30.05,ESE,121,0.0,3.0,76,0.00,,,0.00,Wunderground v.1.15,2013-08-08 16:15:00,
2013-08-08 12:18:00,80.1,72.2,30.05,ESE,121,0.0,3.0,77,0.00,,,0.00,Wunderground v.1.15,2013-08-08 16:18:00,
2013-08-08 12:19:00,80.1,72.2,30.05,ESE,122,0.0,3.0,77,0.00,,,0.00,Wunderground v.1.15,2013-08-08 16:19:00,
2013-08-08 12:21:00,79.9,72.0,30.05,ESE,122,0.0,3.0,77,0.00,,,0.00,Wunderground v.1.15,2013-08-08 16:21:00,
2013-08-08 12:23:00,79.9,72.4,30.05,SE,126,0.0,0.0,78,0.00,,,0.00,Wunderground v.1.15,2013-08-08 16:23:00,
2013-08-08 12:24:00,79.9,72.4,30.05,SE,126,0.0,1.0,78,0.00,,,0.00,Wunderground v.1.15,2013-08-08 16:24:00,
2013-08-08 12:26:00,79.8,72.3,30.05,SE,126,0.0,1.0,78,0.00,,,0.00,Wunderground v.1.15,2013-08-08 16:26:00,
2013-08-08 12:29:00,79.8,72.3,30.05,SE,126,0.0,1.0,78,0.00,,,0.00,Wunderground v.1.15,2013-08-08 16:29:00,
2013-08-08 12:31:00,79.9,72.8,30.05,SE,126,0.0,1.0,79,0.00,,,0.00,Wunderground v.1.15,2013-08-08 16:31:00,
2013-08-08 12:34:00,80.1,72.6,30.04,SE,142,3.0,3.0,78,0.00,,,0.00,Wunderground v.1.15,2013-08-08 16:34:00,
2013-08-08 12:35:00,80.1,72.6,30.04,SSE,162,1.0,3.0,78,0.00,,,0.00,Wunderground v.1.15,2013-08-08 16:35:00,
2013-08-08 12:36:00,80.1,72.6,30.04,SSE,162,0.0,3.0,78,0.00,,,0.00,Wunderground v.1.15,2013-08-08 16:36:00,
2013-08-08 12:39:00,80.3,72.8,30.04,SE,124,0.0,3.0,78,0.00,,,0.00,Wunderground v.1.15,2013-08-08 16:39:00,
2013-08-08 12:41:00,80.3,72.4,30.04,SE,124,0.0,3.0,77,0.00,,,0.00,Wunderground v.1.15,2013-08-08 16:41:00,
2013-08-08 12:43:00,80.5,72.6,30.04,SE,133,0.0,2.0,77,0.00,,,0.00,Wunderground v.1.15,2013-08-08 16:43:00,
2013-08-08 12:44:00,80.3,72.4,30.04,East,91,2.0,4.0,77,0.00,,,0.00,Wunderground v.1.15,2013-08-08 16:44:00,
2013-08-08 12:46:00,80.3,72.4,30.04,ESE,106,0.0,4.0,77,0.00,,,0.00,Wunderground v.1.15,2013-08-08 16:46:00,
2013-08-08 12:48:00,80.3,72.4,30.04,SSW,196,0.0,4.0,77,0.00,,,0.00,Wunderground v.1.15,2013-08-08 16:48:00,
2013-08-08 12:50:00,80.5,72.6,30.04,SW,217,0.0,4.0,77,0.00,,,0.00,Wunderground v.1.15,2013-08-08 16:50:00,
2013-08-08 12:51:00,80.7,72.8,30.04,SW,215,0.0,4.0,77,0.00,,,0.00,Wunderground v.1.15,2013-08-08 16:51:00,
2013-08-08 12:53:00,80.9,73.0,30.04,SE,134,0.0,5.0,77,0.00,,,0.00,Wunderground v.1.15,2013-08-08 16:53:00,
2013-08-08 12:55:00,80.9,72.6,30.04,ESE,110,4.0,5.0,76,0.00,,,0.00,Wunderground v.1.15,2013-08-08 16:55:00,
2013-08-08 12:56:00,80.9,72.2,30.04,ESE,118,1.0,5.0,75,0.00,,,0.00,Wunderground v.1.15,2013-08-08 16:56:00,
2013-08-08 12:59:00,81.1,72.8,30.04,ESE,119,0.0,5.0,76,0.00,,,0.00,Wunderground v.1.15,2013-08-08 16:59:00,
2013-08-08 13:00:00,81.1,72.8,30.04,ESE,119,0.0,5.0,76,0.00,,,0.00,Wunderground v.1.15,2013-08-08 17:00:00,
2013-08-08 13:01:00,81.1,72.8,30.04,ESE,119,1.0,5.0,76,0.00,,,0.00,Wunderground v.1.15,2013-08-08 17:01:00,
2013-08-08 13:02:00,81.2,72.9,30.04,South,180,7.0,7.0,76,0.00,,,0.00,Wunderground v.1.15,2013-08-08 17:02:00,
2013-08-08 13:04:00,81.2,72.1,30.04,South,172,0.0,5.0,74,0.00,,,0.00,Wunderground v.1.15,2013-08-08 17:04:00,
2013-08-08 13:06:00,81.2,72.1,30.04,SSE,162,2.0,5.0,74,0.00,,,0.00,Wunderground v.1.15,2013-08-08 17:06:00,
2013-08-08 13:07:00,81.4,72.3,30.04,SSE,163,0.0,5.0,74,0.00,,,0.00,Wunderground v.1.15,2013-08-08 17:07:00,
2013-08-08 13:09:00,81.6,72.5,30.04,West,259,0.0,5.0,74,0.00,,,0.00,Wunderground v.1.15,2013-08-08 17:09:00,
2013-08-08 13:11:00,82.0,72.5,30.04,WSW,246,0.0,5.0,73,0.00,,,0.00,Wunderground v.1.15,2013-08-08 17:11:00,
2013-08-08 13:12:00,82.0,72.9,30.04,WSW,246,0.0,1.0,74,0.00,,,0.00,Wunderground v.1.15,2013-08-08 17:12:00,
2013-08-08 13:15:00,82.2,72.7,30.04,SSE,167,2.0,3.0,73,0.00,,,0.00,Wunderground v.1.15,2013-08-08 17:15:00,
2013-08-08 13:17:00,82.4,72.5,30.04,SSE,155,1.0,4.0,72,0.00,,,0.00,Wunderground v.1.15,2013-08-08 17:17:00,
2013-08-08 13:18:00,82.6,72.7,30.04,SSE,167,0.0,4.0,72,0.00,,,0.00,Wunderground v.1.15,2013-08-08 17:18:00,
2013-08-08 13:20:00,82.6,72.2,30.04,SE,132,4.0,4.0,71,0.00,,,0.00,Wunderground v.1.15,2013-08-08 17:20:00,
2013-08-08 13:22:00,82.6,72.2,30.04,SE,133,0.0,1.0,71,0.00,,,0.00,Wunderground v.1.15,2013-08-08 17:22:00,
2013-08-08 13:23:00,82.6,72.2,30.04,SSE,159,0.0,2.0,71,0.00,,,0.00,Wunderground v.1.15,2013-08-08 17:23:00,
2013-08-08 13:26:00,82.4,72.0,30.04,South,191,0.0,3.0,71,0.00,,,0.00,Wunderground v.1.15,2013-08-08 17:26:00,
2013-08-08 13:27:00,82.4,72.0,30.04,South,178,2.0,3.0,71,0.00,,,0.00,Wunderground v.1.15,2013-08-08 17:27:00,
2013-08-08 13:28:00,82.4,72.5,30.04,WSW,245,0.0,3.0,72,0.00,,,0.00,Wunderground v.1.15,2013-08-08 17:28:00,
2013-08-08 13:31:00,82.2,72.3,30.04,SE,142,1.0,5.0,72,0.00,,,0.00,Wunderground v.1.15,2013-08-08 17:31:00,
2013-08-08 13:32:00,82.2,72.3,30.04,SE,144,0.0,1.0,72,0.00,,,0.00,Wunderground v.1.15,2013-08-08 17:32:00,
2013-08-08 13:33:00,82.2,71.9,30.04,SSE,162,1.0,2.0,71,0.00,,,0.00,Wunderground v.1.15,2013-08-08 17:33:00,
2013-08-08 13:35:00,82.4,72.5,30.04,SSE,157,0.0,2.0,72,0.00,,,0.00,Wunderground v.1.15,2013-08-08 17:35:00,
2013-08-08 13:37:00,82.8,72.4,30.04,SSW,200,0.0,2.0,71,0.00,,,0.00,Wunderground v.1.15,2013-08-08 17:37:00,
2013-08-08 13:38:00,83.0,72.6,30.04,SSW,211,0.0,2.0,71,0.00,,,0.00,Wunderground v.1.15,2013-08-08 17:38:00,
2013-08-08 13:39:00,83.0,72.6,30.04,SW,227,1.0,2.0,71,0.00,,,0.00,Wunderground v.1.15,2013-08-08 17:39:00,
2013-08-08 13:41:00,83.0,72.6,30.04,SW,227,1.0,2.0,71,0.00,,,0.00,Wunderground v.1.15,2013-08-08 17:41:00,
2013-08-08 13:42:00,83.2,72.8,30.04,SW,230,0.0,0.0,71,0.00,,,0.00,Wunderground v.1.15,2013-08-08 17:42:00,
2013-08-08 13:43:00,83.2,72.8,30.04,SW,230,0.0,1.0,71,0.00,,,0.00,Wunderground v.1.15,2013-08-08 17:43:00,
2013-08-08 13:44:00,83.0,72.6,30.04,South,191,1.0,1.0,71,0.00,,,0.00,Wunderground v.1.15,2013-08-08 17:44:00,
2013-08-08 13:46:00,83.0,72.6,30.04,South,182,1.0,3.0,71,0.00,,,0.00,Wunderground v.1.15,2013-08-08 17:46:00,
2013-08-08 13:47:00,83.0,72.6,30.04,South,182,0.0,3.0,71,0.00,,,0.00,Wunderground v.1.15,2013-08-08 17:47:00,
2013-08-08 13:48:00,82.8,72.4,30.04,South,174,0.0,3.0,71,0.00,,,0.00,Wunderground v.1.15,2013-08-08 17:48:00,
2013-08-08 13:51:00,82.8,72.0,30.04,South,169,0.0,3.0,70,0.00,,,0.00,Wunderground v.1.15,2013-08-08 17:51:00,
2013-08-08 13:52:00,82.6,71.8,30.04,SSE,155,0.0,0.0,70,0.00,,,0.00,Wunderground v.1.15,2013-08-08 17:52:00,
2013-08-08 13:53:00,82.6,72.2,30.04,SSE,154,0.0,3.0,71,0.00,,,0.00,Wunderground v.1.15,2013-08-08 17:53:00,
2013-08-08 13:56:00,82.6,71.8,30.04,SSE,164,0.0,3.0,70,0.00,,,0.00,Wunderground v.1.15,2013-08-08 17:56:00,
2013-08-08 13:57:00,82.6,71.8,30.04,SSE,164,0.0,3.0,70,0.00,,,0.00,Wunderground v.1.15,2013-08-08 17:57:00,
2013-08-08 13:58:00,83.0,72.2,30.04,SSE,167,0.0,3.0,70,0.00,,,0.00,Wunderground v.1.15,2013-08-08 17:58:00,
2013-08-08 13:59:00,83.0,72.2,30.04,SSE,167,0.0,3.0,70,0.00,,,0.00,Wunderground v.1.15,2013-08-08 17:59:00,
2013-08-08 14:01:00,83.2,72.4,30.04,WSW,251,2.0,3.0,70,0.00,,,0.00,Wunderground v.1.15,2013-08-08 18:01:00,
2013-08-08 14:02:00,83.2,72.4,30.04,WSW,251,0.0,1.0,70,0.00,,,0.00,Wunderground v.1.15,2013-08-08 18:02:00,
2013-08-08 14:03:00,83.0,72.6,30.04,SSW,199,1.0,1.0,71,0.00,,,0.00,Wunderground v.1.15,2013-08-08 18:03:00,
2013-08-08 14:04:00,83.0,72.6,30.04,SSW,199,0.0,1.0,71,0.00,,,0.00,Wunderground v.1.15,2013-08-08 18:04:00,
2013-08-08 14:06:00,83.2,73.2,30.04,NW,323,0.0,1.0,72,0.00,,,0.00,Wunderground v.1.15,2013-08-08 18:06:00,
2013-08-08 14:08:00,83.2,72.4,30.04,South,175,3.0,3.0,70,0.00,,,0.00,Wunderground v.1.15,2013-08-08 18:08:00,
2013-08-08 14:09:00,83.0,71.8,30.04,SSE,162,1.0,4.0,69,0.00,,,0.00,Wunderground v.1.15,2013-08-08 18:09:00,
2013-08-08 14:11:00,83.0,72.2,30.04,SE,146,1.0,4.0,70,0.00,,,0.00,Wunderground v.1.15,2013-08-08 18:11:00,
2013-08-08 14:13:00,83.0,71.8,30.04,SE,140,0.0,5.0,69,0.00,,,0.00,Wunderground v.1.15,2013-08-08 18:13:00,
2013-08-08 14:14:00,82.8,71.6,30.04,SSE,158,0.0,6.0,69,0.00,,,0.00,Wunderground v.1.15,2013-08-08 18:14:00,
2013-08-08 14:15:00,82.8,72.0,30.04,SSE,159,1.0,6.0,70,0.00,,,0.00,Wunderground v.1.15,2013-08-08 18:15:00,
2013-08-08 14:17:00,82.8,72.0,30.04,SSE,160,1.0,6.0,70,0.00,,,0.00,Wunderground v.1.15,2013-08-08 18:17:00,
2013-08-08 14:18:00,82.8,72.0,30.04,SSE,162,2.0,6.0,70,0.00,,,0.00,Wunderground v.1.15,2013-08-08 18:18:00,
2013-08-08 14:19:00,82.8,72.4,30.04,SSE,162,0.0,6.0,71,0.00,,,0.00,Wunderground v.1.15,2013-08-08 18:19:00,
2013-08-08 14:20:00,82.8,72.4,30.04,SE,142,2.0,6.0,71,0.00,,,0.00,Wunderground v.1.15,2013-08-08 18:20:00,
2013-08-08 14:22:00,82.4,72.0,30.04,WSW,255,2.0,6.0,71,0.00,,,0.00,Wunderground v.1.15,2013-08-08 18:22:00,
2013-08-08 14:23:00,82.2,71.9,30.05,SE,129,2.0,6.0,71,0.00,,,0.00,Wunderground v.1.15,2013-08-08 18:23:00,
2013-08-08 14:25:00,81.8,71.9,30.05,East,101,0.0,6.0,72,0.00,,,0.00,Wunderground v.1.15,2013-08-08 18:25:00,
2013-08-08 14:28:00,81.8,72.3,30.04,ENE,76,0.0,6.0,73,0.00,,,0.00,Wunderground v.1.15,2013-08-08 18:28:00,
2013-08-08 14:29:00,81.8,72.3,30.04,ENE,76,0.0,6.0,73,0.00,,,0.00,Wunderground v.1.15,2013-08-08 18:29:00,
2013-08-08 14:30:00,82.0,72.5,30.04,SE,130,0.0,6.0,73,0.00,,,0.00,Wunderground v.1.15,2013-08-08 18:30:00,
2013-08-08 14:31:00,82.0,72.1,30.04,SSW,213,3.0,6.0,72,0.00,,,0.00,Wunderground v.1.15,2013-08-08 18:31:00,
2013-08-08 14:33:00,82.2,72.3,30.04,South,172,0.0,4.0,72,0.00,,,0.00,Wunderground v.1.15,2013-08-08 18:33:00,
2013-08-08 14:34:00,82.2,71.9,30.04,SE,124,2.0,4.0,71,0.00,,,0.00,Wunderground v.1.15,2013-08-08 18:34:00,
2013-08-08 14:36:00,82.0,71.7,30.04,South,179,0.0,4.0,71,0.00,,,0.00,Wunderground v.1.15,2013-08-08 18:36:00,
2013-08-08 14:38:00,82.2,71.9,30.04,SSE,159,1.0,4.0,71,0.00,,,0.00,Wunderground v.1.15,2013-08-08 18:38:00,
2013-08-08 14:39:00,82.2,71.9,30.04,SSE,158,2.0,4.0,71,0.00,,,0.00,Wunderground v.1.15,2013-08-08 18:39:00,
2013-08-08 14:40:00,82.2,71.9,30.04,SSE,158,1.0,4.0,71,0.00,,,0.00,Wunderground v.1.15,2013-08-08 18:40:00,
2013-08-08 14:41:00,82.0,72.1,30.04,SSE,155,6.0,6.0,72,0.00,,,0.00,Wunderground v.1.15,2013-08-08 18:41:00,
2013-08-08 14:44:00,81.8,71.9,30.04,South,169,0.0,3.0,72,0.00,,,0.00,Wunderground v.1.15,2013-08-08 18:44:00,
2013-08-08 14:45:00,81.8,71.5,30.04,South,169,2.0,3.0,71,0.00,,,0.00,Wunderground v.1.15,2013-08-08 18:45:00,
2013-08-08 14:46:00,81.6,71.7,30.04,South,169,0.0,3.0,72,0.00,,,0.00,Wunderground v.1.15,2013-08-08 18:46:00,
2013-08-08 14:47:00,81.6,71.7,30.04,South,169,0.0,3.0,72,0.00,,,0.00,Wunderground v.1.15,2013-08-08 18:47:00,
2013-08-08 14:49:00,81.4,71.5,30.03,East,90,0.0,3.0,72,0.00,,,0.00,Wunderground v.1.15,2013-08-08 18:49:00,
2013-08-08 14:51:00,81.1,71.2,30.03,East,86,1.0,3.0,72,0.00,,,0.00,Wunderground v.1.15,2013-08-08 18:51:00,
2013-08-08 14:52:00,80.9,71.0,30.03,ENE,57,2.0,2.0,72,0.00,,,0.00,Wunderground v.1.15,2013-08-08 18:52:00,
2013-08-08 14:54:00,80.5,70.2,30.03,SSE,159,0.0,4.0,71,0.00,,,0.00,Wunderground v.1.15,2013-08-08 18:54:00,
2013-08-08 14:56:00,80.3,70.4,30.04,SSE,159,0.0,4.0,72,0.00,,,0.00,Wunderground v.1.15,2013-08-08 18:56:00,
2013-08-08 14:57:00,80.3,70.0,30.04,SSE,159,1.0,4.0,71,0.00,,,0.00,Wunderground v.1.15,2013-08-08 18:57:00,
2013-08-08 15:00:00,79.9,69.7,30.04,WSW,245,1.0,4.0,71,0.00,,,0.01,Wunderground v.1.15,2013-08-08 19:00:00,
2013-08-08 15:01:00,79.6,70.2,30.04,SE,127,1.0,4.0,73,1.83,,,0.04,Wunderground v.1.15,2013-08-08 19:01:00,
2013-08-08 15:02:00,79.4,70.8,30.04,SW,234,9.0,11.0,75,1.92,,,0.07,Wunderground v.1.15,2013-08-08 19:02:00,
2013-08-08 15:03:00,79.0,70.4,30.04,SW,215,3.0,11.0,75,2.20,,,0.09,Wunderground v.1.15,2013-08-08 19:03:00,
2013-08-08 15:05:00,77.7,70.3,30.04,WNW,302,1.0,11.0,78,3.69,,,0.23,Wunderground v.1.15,2013-08-08 19:05:00,
2013-08-08 15:06:00,77.2,69.8,30.03,WNW,302,0.0,11.0,78,1.55,,,0.27,Wunderground v.1.15,2013-08-08 19:06:00,
2013-08-08 15:07:00,77.0,69.6,30.03,WNW,302,0.0,11.0,78,2.40,,,0.29,Wunderground v.1.15,2013-08-08 19:07:00,
2013-08-08 15:08:00,76.7,69.7,30.03,WNW,302,0.0,11.0,79,1.76,,,0.31,Wunderground v.1.15,2013-08-08 19:08:00,
2013-08-08 15:11:00,75.6,69.4,30.04,SSE,163,0.0,11.0,81,1.30,,,0.39,Wunderground v.1.15,2013-08-08 19:11:00,
2013-08-08 15:12:00,75.1,69.2,30.03,SSE,163,0.0,2.0,82,0.83,,,0.40,Wunderground v.1.15,2013-08-08 19:12:00,
2013-08-08 15:13:00,74.9,69.4,30.03,SSE,163,0.0,2.0,83,0.69,,,0.41,Wunderground v.1.15,2013-08-08 19:13:00,
2013-08-08 15:16:00,74.6,69.8,30.04,SSE,159,0.0,4.0,85,0.14,,,0.41,Wunderground v.1.15,2013-08-08 19:16:00,
2013-08-08 15:17:00,74.6,70.1,30.04,SSE,159,0.0,4.0,86,0.12,,,0.41,Wunderground v.1.15,2013-08-08 19:17:00,
2013-08-08 15:18:00,74.7,70.2,30.04,SSE,162,2.0,4.0,86,0.09,,,0.41,Wunderground v.1.15,2013-08-08 19:18:00,
2013-08-08 15:21:00,74.7,70.9,30.04,SSE,165,3.0,4.0,88,0.06,,,0.42,Wunderground v.1.15,2013-08-08 19:21:00,
2013-08-08 15:22:00,74.7,70.9,30.04,SSE,164,1.0,2.0,88,0.74,,,0.43,Wunderground v.1.15,2013-08-08 19:22:00,
2013-08-08 15:23:00,74.6,70.8,30.04,East,88,2.0,3.0,88,1.92,,,0.45,Wunderground v.1.15,2013-08-08 19:23:00,
2013-08-08 15:24:00,74.6,70.8,30.04,East,88,0.0,3.0,88,2.41,,,0.48,Wunderground v.1.15,2013-08-08 19:24:00,
2013-08-08 15:27:00,74.4,70.6,30.04,East,92,0.0,3.0,88,0.22,,,0.49,Wunderground v.1.15,2013-08-08 19:27:00,
2013-08-08 15:28:00,74.4,70.6,30.04,East,93,2.0,3.0,88,0.19,,,0.49,Wunderground v.1.15,2013-08-08 19:28:00,
2013-08-08 15:29:00,74.2,70.4,30.04,ESE,112,1.0,3.0,88,0.14,,,0.49,Wunderground v.1.15,2013-08-08 19:29:00,
2013-08-08 15:30:00,74.0,70.2,30.04,ESE,112,0.0,3.0,88,0.11,,,0.49,Wunderground v.1.15,2013-08-08 19:30:00,
2013-08-08 15:32:00,74.0,70.6,30.04,ESE,116,0.0,2.0,89,0.08,,,0.49,Wunderground v.1.15,2013-08-08 19:32:00,
2013-08-08 15:33:00,74.0,70.6,30.04,ESE,115,0.0,2.0,89,0.07,,,0.49,Wunderground v.1.15,2013-08-08 19:33:00,
2013-08-08 15:34:00,73.9,70.5,30.04,ESE,116,0.0,2.0,89,0.06,,,0.49,Wunderground v.1.15,2013-08-08 19:34:00,
2013-08-08 15:35:00,73.9,70.5,30.04,ESE,116,0.0,2.0,89,0.06,,,0.49,Wunderground v.1.15,2013-08-08 19:35:00,
2013-08-08 15:38:00,73.9,70.8,30.04,WNW,298,0.0,3.0,90,0.04,,,0.49,Wunderground v.1.15,2013-08-08 19:38:00,
2013-08-08 15:39:00,73.9,70.8,30.04,WNW,298,0.0,3.0,90,0.04,,,0.49,Wunderground v.1.15,2013-08-08 19:39:00,
2013-08-08 15:40:00,73.9,70.8,30.04,WNW,293,0.0,3.0,90,0.78,,,0.51,Wunderground v.1.15,2013-08-08 19:40:00,
2013-08-08 15:41:00,74.0,70.9,30.04,WNW,293,1.0,3.0,90,0.64,,,0.51,Wunderground v.1.15,2013-08-08 19:41:00,
2013-08-08 15:43:00,74.0,70.9,30.04,NE,51,0.0,4.0,90,0.62,,,0.54,Wunderground v.1.15,2013-08-08 19:43:00,
2013-08-08 15:44:00,73.9,70.8,30.04,South,183,0.0,4.0,90,0.46,,,0.55,Wunderground v.1.15,2013-08-08 19:44:00,
2013-08-08 15:46:00,73.9,70.8,30.04,SE,141,2.0,4.0,90,0.40,,,0.56,Wunderground v.1.15,2013-08-08 19:46:00,
2013-08-08 15:48:00,73.5,70.4,30.03,SSE,157,0.0,4.0,90,0.72,,,0.59,Wunderground v.1.15,2013-08-08 19:48:00,
2013-08-08 15:49:00,73.5,70.4,30.03,SE,135,0.0,4.0,90,0.66,,,0.60,Wunderground v.1.15,2013-08-08 19:49:00,
2013-08-08 15:50:00,73.3,70.2,30.03,SE,135,0.0,4.0,90,0.61,,,0.61,Wunderground v.1.15,2013-08-08 19:50:00,
2013-08-08 15:52:00,73.0,69.9,30.04,SSE,163,4.0,4.0,90,0.59,,,0.63,Wunderground v.1.15,2013-08-08 19:52:00,
2013-08-08 15:53:00,72.7,69.3,30.04,ESE,103,0.0,4.0,89,0.76,,,0.65,Wunderground v.1.15,2013-08-08 19:53:00,
2013-08-08 15:54:00,72.5,69.1,30.03,ESE,103,1.0,4.0,89,0.70,,,0.66,Wunderground v.1.15,2013-08-08 19:54:00,
2013-08-08 15:57:00,72.3,69.2,30.04,East,101,1.0,4.0,90,1.18,,,0.71,Wunderground v.1.15,2013-08-08 19:57:00,
2013-08-08 15:59:00,72.3,69.2,30.04,East,101,0.0,4.0,90,2.09,,,0.78,Wunderground v.1.15,2013-08-08 19:59:00,
2013-08-08 16:01:00,72.1,69.0,30.04,East,101,0.0,4.0,90,1.99,,,0.84,Wunderground v.1.15,2013-08-08 20:01:00,
2013-08-08 16:02:00,72.1,69.0,30.04,East,101,0.0,1.0,90,0.78,,,0.85,Wunderground v.1.15,2013-08-08 20:02:00,
2013-08-08 16:03:00,72.1,69.0,30.04,East,101,0.0,2.0,90,0.56,,,0.85,Wunderground v.1.15,2013-08-08 20:03:00,
2013-08-08 16:04:00,72.1,69.0,30.04,East,85,1.0,2.0,90,0.22,,,0.85,Wunderground v.1.15,2013-08-08 20:04:00,
2013-08-08 16:07:00,72.3,69.5,30.04,SSE,159,0.0,3.0,91,1.73,,,0.88,Wunderground v.1.15,2013-08-08 20:07:00,
2013-08-08 16:08:00,72.5,69.7,30.04,SSE,159,1.0,3.0,91,2.07,,,0.91,Wunderground v.1.15,2013-08-08 20:08:00,
2013-08-08 16:09:00,72.7,69.9,30.03,SE,146,1.0,3.0,91,1.43,,,0.95,Wunderground v.1.15,2013-08-08 20:09:00,
2013-08-08 16:10:00,72.7,69.9,30.03,SE,144,2.0,3.0,91,1.11,,,0.95,Wunderground v.1.15,2013-08-08 20:10:00,
2013-08-08 16:12:00,72.8,70.0,30.03,East,96,2.0,3.0,91,0.61,,,0.98,Wunderground v.1.15,2013-08-08 20:12:00,
2013-08-08 16:13:00,72.8,70.0,30.03,East,96,0.0,3.0,91,0.61,,,0.98,Wunderground v.1.15,2013-08-08 20:13:00,
2013-08-08 16:15:00,72.8,70.3,30.03,East,97,0.0,3.0,92,0.40,,,1.00,Wunderground v.1.15,2013-08-08 20:15:00,
2013-08-08 16:16:00,72.8,70.3,30.03,East,97,0.0,3.0,92,1.00,,,1.00,Wunderground v.1.15,2013-08-08 20:16:00,
2013-08-08 16:17:00,72.8,70.3,30.03,East,92,2.0,3.0,92,0.75,,,1.03,Wunderground v.1.15,2013-08-08 20:17:00,
2013-08-08 16:18:00,72.8,70.3,30.03,East,92,2.0,3.0,92,0.75,,,1.03,Wunderground v.1.15,2013-08-08 20:18:00,
2013-08-08 16:21:00,72.8,70.3,30.03,East,88,0.0,4.0,92,0.96,,,1.06,Wunderground v.1.15,2013-08-08 20:21:00,
2013-08-08 16:23:00,72.7,70.2,30.02,East,80,3.0,4.0,92,1.88,,,1.11,Wunderground v.1.15,2013-08-08 20:23:00,
2013-08-08 16:24:00,72.7,70.2,30.02,East,82,1.0,4.0,92,2.30,,,1.13,Wunderground v.1.15,2013-08-08 20:24:00,
2013-08-08 16:26:00,72.7,70.2,30.02,East,86,0.0,4.0,92,2.41,,,1.21,Wunderground v.1.15,2013-08-08 20:26:00,
2013-08-08 16:28:00,72.7,70.2,30.02,NW,317,4.0,4.0,92,0.24,,,1.23,Wunderground v.1.15,2013-08-08 20:28:00,
2013-08-08 16:29:00,72.7,70.2,30.02,NNW,327,2.0,4.0,92,0.21,,,1.23,Wunderground v.1.15,2013-08-08 20:29:00,
2013-08-08 16:31:00,72.7,70.2,30.03,South,188,2.0,5.0,92,0.11,,,1.23,Wunderground v.1.15,2013-08-08 20:31:00,
2013-08-08 16:33:00,72.7,70.6,30.03,North,360,0.0,5.0,93,0.08,,,1.23,Wunderground v.1.15,2013-08-08 20:33:00,
2013-08-08 16:34:00,72.7,70.6,30.03,North,360,2.0,5.0,93,0.08,,,1.23,Wunderground v.1.15,2013-08-08 20:34:00,
2013-08-08 16:37:00,72.7,70.6,30.03,NNW,328,3.0,5.0,93,0.05,,,1.23,Wunderground v.1.15,2013-08-08 20:37:00,
2013-08-08 16:38:00,72.7,70.6,30.03,NNW,328,0.0,5.0,93,0.05,,,1.23,Wunderground v.1.15,2013-08-08 20:38:00,
2013-08-08 16:39:00,72.7,70.6,30.03,NNW,328,0.0,5.0,93,0.05,,,1.23,Wunderground v.1.15,2013-08-08 20:39:00,
2013-08-08 16:42:00,72.8,70.7,30.03,East,80,4.0,4.0,93,0.04,,,1.23,Wunderground v.1.15,2013-08-08 20:42:00,
2013-08-08 16:43:00,72.8,70.7,30.03,East,80,3.0,4.0,93,0.00,,,1.23,Wunderground v.1.15,2013-08-08 20:43:00,
2013-08-08 16:44:00,72.8,70.7,30.02,East,80,3.0,4.0,93,0.00,,,1.23,Wunderground v.1.15,2013-08-08 20:44:00,
2013-08-08 16:47:00,72.8,70.7,30.03,East,80,0.0,4.0,93,0.00,,,1.23,Wunderground v.1.15,2013-08-08 20:47:00,
2013-08-08 16:48:00,72.8,70.7,30.03,East,80,0.0,4.0,93,0.00,,,1.23,Wunderground v.1.15,2013-08-08 20:48:00,
2013-08-08 16:49:00,72.8,70.7,30.03,East,80,0.0,4.0,93,0.00,,,1.23,Wunderground v.1.15,2013-08-08 20:49:00,
2013-08-08 16:50:00,72.8,70.7,30.03,East,80,1.0,4.0,93,0.00,,,1.23,Wunderground v.1.15,2013-08-08 20:50:00,
2013-08-08 16:54:00,73.0,70.9,30.03,South,184,0.0,1.0,93,0.00,,,1.23,Wunderground v.1.15,2013-08-08 20:54:00,
2013-08-08 16:55:00,73.2,71.1,30.03,South,184,0.0,1.0,93,0.00,,,1.23,Wunderground v.1.15,2013-08-08 20:55:00,
2013-08-08 16:59:00,73.3,71.2,30.03,SE,139,0.0,2.0,93,0.00,,,1.23,Wunderground v.1.15,2013-08-08 20:59:00,
2013-08-08 17:01:00,73.5,71.4,30.03,SE,139,0.0,2.0,93,0.00,,,1.23,Wunderground v.1.15,2013-08-08 21:01:00,
2013-08-08 17:04:00,73.7,71.5,30.02,SE,139,0.0,1.0,93,0.00,,,1.23,Wunderground v.1.15,2013-08-08 21:04:00,
2013-08-08 17:06:00,73.7,71.5,30.02,SE,139,0.0,1.0,93,0.00,,,1.23,Wunderground v.1.15,2013-08-08 21:06:00,
2013-08-08 17:10:00,73.9,71.7,30.02,SSE,168,1.0,3.0,93,0.00,,,1.23,Wunderground v.1.15,2013-08-08 21:10:00,
2013-08-08 17:12:00,74.0,71.8,30.02,SSE,162,0.0,1.0,93,0.00,,,1.23,Wunderground v.1.15,2013-08-08 21:12:00,
2013-08-08 17:15:00,74.0,71.8,30.02,South,173,1.0,4.0,93,0.00,,,1.23,Wunderground v.1.15,2013-08-08 21:15:00,
2013-08-08 17:17:00,74.4,72.2,30.02,SSE,155,0.0,4.0,93,0.00,,,1.23,Wunderground v.1.15,2013-08-08 21:17:00,
2013-08-08 17:20:00,74.6,72.4,30.02,East,92,0.0,4.0,93,0.00,,,1.23,Wunderground v.1.15,2013-08-08 21:20:00,
2013-08-08 17:23:00,75.1,72.9,30.02,ENE,59,0.0,2.0,93,0.00,,,1.23,Wunderground v.1.15,2013-08-08 21:23:00,
2013-08-08 17:24:00,75.1,72.9,30.02,East,95,0.0,2.0,93,0.00,,,1.23,Wunderground v.1.15,2013-08-08 21:24:00,
2013-08-08 17:25:00,75.1,72.9,30.02,SSE,148,5.0,5.0,93,0.00,,,1.23,Wunderground v.1.15,2013-08-08 21:25:00,
2013-08-08 17:28:00,74.9,72.7,30.02,WSW,251,0.0,5.0,93,0.00,,,1.23,Wunderground v.1.15,2013-08-08 21:28:00,
2013-08-08 17:30:00,74.9,72.7,30.02,SSE,148,1.0,5.0,93,0.00,,,1.23,Wunderground v.1.15,2013-08-08 21:30:00,
2013-08-08 17:33:00,75.1,72.9,30.02,South,180,5.0,5.0,93,0.00,,,1.23,Wunderground v.1.15,2013-08-08 21:33:00,
2013-08-08 17:36:00,74.9,72.7,30.02,South,182,0.0,5.0,93,0.00,,,1.23,Wunderground v.1.15,2013-08-08 21:36:00,
2013-08-08 17:39:00,74.9,72.7,30.02,South,174,0.0,5.0,93,0.00,,,1.23,Wunderground v.1.15,2013-08-08 21:39:00,
2013-08-08 17:41:00,74.9,72.7,30.02,SSE,155,2.0,5.0,93,0.00,,,1.23,Wunderground v.1.15,2013-08-08 21:41:00,
2013-08-08 17:42:00,74.9,72.7,30.02,SSE,167,1.0,1.0,93,0.00,,,1.23,Wunderground v.1.15,2013-08-08 21:42:00,
2013-08-08 17:44:00,75.1,72.6,30.02,East,94,0.0,2.0,92,0.00,,,1.23,Wunderground v.1.15,2013-08-08 21:44:00,
2013-08-08 17:46:00,75.1,72.6,30.02,SSE,161,0.0,2.0,92,0.00,,,1.23,Wunderground v.1.15,2013-08-08 21:46:00,
2013-08-08 17:47:00,75.1,72.6,30.02,SSE,161,0.0,2.0,92,0.00,,,1.23,Wunderground v.1.15,2013-08-08 21:47:00,
2013-08-08 17:51:00,75.3,72.8,30.02,South,184,0.0,2.0,92,0.00,,,1.23,Wunderground v.1.15,2013-08-08 21:51:00,
2013-08-08 17:52:00,75.3,72.8,30.02,East,92,0.0,0.0,92,0.00,,,1.23,Wunderground v.1.15,2013-08-08 21:52:00,
2013-08-08 17:53:00,75.3,72.8,30.02,SE,146,0.0,1.0,92,0.00,,,1.23,Wunderground v.1.15,2013-08-08 21:53:00,
2013-08-08 17:55:00,75.3,72.8,30.02,SSE,153,0.0,2.0,92,0.00,,,1.23,Wunderground v.1.15,2013-08-08 21:55:00,
2013-08-08 17:56:00,75.1,72.6,30.02,SSW,209,0.0,2.0,92,0.00,,,1.23,Wunderground v.1.15,2013-08-08 21:56:00,
2013-08-08 17:58:00,75.1,72.3,30.02,SSE,151,3.0,3.0,91,0.00,,,1.23,Wunderground v.1.15,2013-08-08 21:58:00,
2013-08-08 17:59:00,75.1,72.3,30.02,South,169,0.0,3.0,91,0.00,,,1.23,Wunderground v.1.15,2013-08-08 21:59:00,
2013-08-08 18:00:00,75.1,72.3,30.02,South,177,0.0,4.0,91,0.00,,,1.23,Wunderground v.1.15,2013-08-08 22:00:00,
2013-08-08 18:02:00,75.1,72.3,30.02,SSW,209,0.0,1.0,91,0.00,,,1.23,Wunderground v.1.15,2013-08-08 22:02:00,
2013-08-08 18:03:00,75.1,72.3,30.03,South,169,4.0,5.0,91,0.00,,,1.23,Wunderground v.1.15,2013-08-08 22:03:00,
2013-08-08 18:04:00,75.1,72.3,30.03,South,169,2.0,5.0,91,0.00,,,1.23,Wunderground v.1.15,2013-08-08 22:04:00,
2013-08-08 18:06:00,75.1,72.0,30.02,SE,134,4.0,5.0,90,0.00,,,1.23,Wunderground v.1.15,2013-08-08 22:06:00,
2013-08-08 18:08:00,75.1,72.0,30.02,SSE,165,0.0,5.0,90,0.00,,,1.23,Wunderground v.1.15,2013-08-08 22:08:00,
2013-08-08 18:09:00,75.3,72.2,30.03,South,180,0.0,5.0,90,0.00,,,1.23,Wunderground v.1.15,2013-08-08 22:09:00,
2013-08-08 18:10:00,75.3,72.2,30.03,South,180,0.0,5.0,90,0.00,,,1.23,Wunderground v.1.15,2013-08-08 22:10:00,
2013-08-08 18:12:00,75.1,72.0,30.03,SSE,153,4.0,4.0,90,0.00,,,1.23,Wunderground v.1.15,2013-08-08 22:12:00,
2013-08-08 18:14:00,75.1,72.0,30.03,South,179,0.0,4.0,90,0.00,,,1.23,Wunderground v.1.15,2013-08-08 22:14:00,
2013-08-08 18:15:00,75.1,72.0,30.03,SSW,205,3.0,4.0,90,0.00,,,1.23,Wunderground v.1.15,2013-08-08 22:15:00,
2013-08-08 18:18:00,75.3,71.8,30.02,ENE,65,1.0,5.0,89,0.00,,,1.23,Wunderground v.1.15,2013-08-08 22:18:00,
2013-08-08 18:20:00,75.3,71.8,30.02,ENE,65,0.0,5.0,89,0.00,,,1.23,Wunderground v.1.15,2013-08-08 22:20:00,
2013-08-08 18:21:00,75.3,71.8,30.02,ENE,65,0.0,5.0,89,0.00,,,1.23,Wunderground v.1.15,2013-08-08 22:21:00,
2013-08-08 18:22:00,75.3,71.8,30.03,East,88,0.0,1.0,89,0.00,,,1.23,Wunderground v.1.15,2013-08-08 22:22:00,
2013-08-08 18:23:00,75.3,71.8,30.03,SSE,167,3.0,5.0,89,0.00,,,1.23,Wunderground v.1.15,2013-08-08 22:23:00,
2013-08-08 18:27:00,75.1,71.3,30.02,SW,216,2.0,5.0,88,0.00,,,1.23,Wunderground v.1.15,2013-08-08 22:27:00,
2013-08-08 18:28:00,75.1,71.6,30.02,SW,215,1.0,5.0,89,0.00,,,1.23,Wunderground v.1.15,2013-08-08 22:28:00,
2013-08-08 18:29:00,75.1,71.3,30.02,SSW,209,0.0,5.0,88,0.00,,,1.23,Wunderground v.1.15,2013-08-08 22:29:00,
2013-08-08 18:32:00,75.1,71.3,30.02,South,171,1.0,1.0,88,0.00,,,1.23,Wunderground v.1.15,2013-08-08 22:32:00,
2013-08-08 18:33:00,75.1,71.3,30.02,South,171,0.0,1.0,88,0.00,,,1.23,Wunderground v.1.15,2013-08-08 22:33:00,
2013-08-08 18:36:00,75.1,71.3,30.03,South,172,0.0,4.0,88,0.00,,,1.23,Wunderground v.1.15,2013-08-08 22:36:00,
2013-08-08 18:37:00,75.1,71.3,30.03,SE,138,5.0,5.0,88,0.00,,,1.23,Wunderground v.1.15,2013-08-08 22:37:00,
2013-08-08 18:38:00,75.1,71.3,30.02,SE,138,0.0,5.0,88,0.00,,,1.23,Wunderground v.1.15,2013-08-08 22:38:00,
2013-08-08 18:42:00,75.1,71.3,30.02,SSE,166,1.0,6.0,88,0.00,,,1.23,Wunderground v.1.15,2013-08-08 22:42:00,
2013-08-08 18:43:00,75.1,71.3,30.02,SSE,154,0.0,1.0,88,0.00,,,1.23,Wunderground v.1.15,2013-08-08 22:43:00,
2013-08-08 18:47:00,75.1,71.3,30.02,SE,130,2.0,4.0,88,0.00,,,1.23,Wunderground v.1.15,2013-08-08 22:47:00,
2013-08-08 18:48:00,75.1,71.3,30.02,SE,143,1.0,4.0,88,0.00,,,1.23,Wunderground v.1.15,2013-08-08 22:48:00,
2013-08-08 18:49:00,75.1,71.3,30.02,SSE,150,1.0,4.0,88,0.00,,,1.23,Wunderground v.1.15,2013-08-08 22:49:00,
2013-08-08 18:50:00,75.1,71.3,30.02,SSE,150,0.0,4.0,88,0.00,,,1.23,Wunderground v.1.15,2013-08-08 22:50:00,
2013-08-08 18:52:00,75.1,71.3,30.02,SSE,149,1.0,1.0,88,0.00,,,1.23,Wunderground v.1.15,2013-08-08 22:52:00,
2013-08-08 18:55:00,75.3,71.5,30.02,SSE,148,1.0,3.0,88,0.00,,,1.23,Wunderground v.1.15,2013-08-08 22:55:00,
2013-08-08 18:57:00,75.1,71.3,30.02,ESE,108,0.0,4.0,88,0.00,,,1.23,Wunderground v.1.15,2013-08-08 22:57:00,
2013-08-08 19:00:00,75.3,72.5,30.02,SE,140,1.0,5.0,91,0.00,,,1.23,Wunderground v.1.15,2013-08-08 23:00:00,
2013-08-08 19:02:00,75.3,71.5,30.02,ENE,67,2.0,2.0,88,0.00,,,1.23,Wunderground v.1.15,2013-08-08 23:02:00,
2013-08-08 19:06:00,75.3,71.5,30.02,SSE,165,1.0,5.0,88,0.00,,,1.23,Wunderground v.1.15,2013-08-08 23:06:00,
2013-08-08 19:08:00,75.4,71.6,30.02,ESE,105,0.0,5.0,88,0.00,,,1.23,Wunderground v.1.15,2013-08-08 23:08:00,
2013-08-08 19:12:00,75.4,71.6,30.02,SE,135,0.0,1.0,88,0.00,,,1.23,Wunderground v.1.15,2013-08-08 23:12:00,
2013-08-08 19:13:00,75.4,71.6,30.02,SE,135,1.0,1.0,88,0.00,,,1.23,Wunderground v.1.15,2013-08-08 23:13:00,
2013-08-08 19:17:00,75.4,71.6,30.03,SSE,164,0.0,3.0,88,0.00,,,1.23,Wunderground v.1.15,2013-08-08 23:17:00,
2013-08-08 19:18:00,75.3,71.5,30.03,WSW,255,3.0,4.0,88,0.00,,,1.23,Wunderground v.1.15,2013-08-08 23:18:00,
2013-08-08 19:20:00,75.3,71.5,30.03,SE,140,0.0,4.0,88,0.00,,,1.23,Wunderground v.1.15,2013-08-08 23:20:00,
2013-08-08 19:22:00,75.3,71.5,30.03,SE,142,1.0,1.0,88,0.00,,,1.23,Wunderground v.1.15,2013-08-08 23:22:00,
2013-08-08 19:25:00,75.3,71.5,30.03,SSE,148,0.0,3.0,88,0.00,,,1.23,Wunderground v.1.15,2013-08-08 23:25:00,
2013-08-08 19:26:00,75.3,71.5,30.03,SSE,148,0.0,3.0,88,0.00,,,1.23,Wunderground v.1.15,2013-08-08 23:26:00,
2013-08-08 19:29:00,75.4,71.6,30.03,SSE,148,0.0,3.0,88,0.00,,,1.23,Wunderground v.1.15,2013-08-08 23:29:00,
2013-08-08 19:30:00,75.4,71.6,30.03,SSE,148,0.0,3.0,88,0.00,,,1.23,Wunderground v.1.15,2013-08-08 23:30:00,
2013-08-08 19:33:00,75.4,71.6,30.03,SSE,161,2.0,2.0,88,0.00,,,1.23,Wunderground v.1.15,2013-08-08 23:33:00,
2013-08-08 19:34:00,75.4,71.6,30.03,SSE,161,0.0,2.0,88,0.00,,,1.23,Wunderground v.1.15,2013-08-08 23:34:00,
2013-08-08 19:35:00,75.4,71.6,30.03,SSE,161,0.0,2.0,88,0.00,,,1.23,Wunderground v.1.15,2013-08-08 23:35:00,
2013-08-08 19:36:00,75.4,71.6,30.03,NE,49,3.0,3.0,88,0.00,,,1.23,Wunderground v.1.15,2013-08-08 23:36:00,
2013-08-08 19:39:00,75.3,71.5,30.03,SSE,161,2.0,6.0,88,0.00,,,1.23,Wunderground v.1.15,2013-08-08 23:39:00,
2013-08-08 19:42:00,75.3,71.5,30.03,SSE,166,0.0,1.0,88,0.00,,,1.23,Wunderground v.1.15,2013-08-08 23:42:00,
2013-08-08 19:44:00,75.3,71.5,30.03,SSE,166,0.0,1.0,88,0.00,,,1.23,Wunderground v.1.15,2013-08-08 23:44:00,
2013-08-08 19:46:00,75.3,71.5,30.03,SSE,166,0.0,1.0,88,0.00,,,1.23,Wunderground v.1.15,2013-08-08 23:46:00,
2013-08-08 19:48:00,75.3,71.5,30.03,SE,128,0.0,5.0,88,0.00,,,1.23,Wunderground v.1.15,2013-08-08 23:48:00,
2013-08-08 19:49:00,75.3,71.5,30.03,SE,128,0.0,5.0,88,0.00,,,1.23,Wunderground v.1.15,2013-08-08 23:49:00,
2013-08-08 19:50:00,75.3,71.5,30.03,SE,128,0.0,5.0,88,0.00,,,1.23,Wunderground v.1.15,2013-08-08 23:50:00,
2013-08-08 19:52:00,75.3,71.5,30.03,ESE,110,0.0,0.0,88,0.00,,,1.23,Wunderground v.1.15,2013-08-08 23:52:00,
2013-08-08 19:53:00,75.3,71.5,30.03,ESE,110,0.0,0.0,88,0.00,,,1.23,Wunderground v.1.15,2013-08-08 23:53:00,
2013-08-08 19:55:00,75.1,71.3,30.03,ESE,110,0.0,1.0,88,0.00,,,1.23,Wunderground v.1.15,2013-08-08 23:55:00,
2013-08-08 19:57:00,75.1,71.3,30.03,SSE,164,1.0,3.0,88,0.00,,,1.23,Wunderground v.1.15,2013-08-08 23:57:00,
2013-08-08 19:58:00,75.1,71.3,30.03,SSE,164,0.0,3.0,88,0.00,,,1.23,Wunderground v.1.15,2013-08-08 23:58:00,
2013-08-08 20:00:00,75.1,71.3,30.03,SSE,164,1.0,3.0,88,0.00,,,1.23,Wunderground v.1.15,2013-08-09 00:00:00,
2013-08-08 20:02:00,74.9,71.1,30.03,SSE,164,0.0,0.0,88,0.00,,,1.23,Wunderground v.1.15,2013-08-09 00:02:00,
2013-08-08 20:03:00,74.9,71.1,30.03,SSE,163,0.0,1.0,88,0.00,,,1.23,Wunderground v.1.15,2013-08-09 00:03:00,
2013-08-08 20:06:00,74.9,71.1,30.03,South,190,0.0,2.0,88,0.00,,,1.23,Wunderground v.1.15,2013-08-09 00:06:00,
2013-08-08 20:07:00,74.9,71.1,30.03,South,190,0.0,2.0,88,0.00,,,1.23,Wunderground v.1.15,2013-08-09 00:07:00,
2013-08-08 20:09:00,74.9,70.8,30.03,SSW,202,0.0,3.0,87,0.00,,,1.23,Wunderground v.1.15,2013-08-09 00:09:00,
2013-08-08 20:12:00,74.7,70.6,30.03,SSW,194,1.0,3.0,87,0.00,,,1.23,Wunderground v.1.15,2013-08-09 00:12:00,
2013-08-08 20:13:00,74.7,70.6,30.03,West,262,0.0,3.0,87,0.00,,,1.23,Wunderground v.1.15,2013-08-09 00:13:00,
2013-08-08 20:15:00,74.7,70.6,30.03,West,262,0.0,3.0,87,0.00,,,1.23,Wunderground v.1.15,2013-08-09 00:15:00,
2013-08-08 20:17:00,74.7,70.2,30.03,West,261,0.0,3.0,86,0.00,,,1.23,Wunderground v.1.15,2013-08-09 00:17:00,
2013-08-08 20:18:00,74.7,70.2,30.03,West,261,0.0,3.0,86,0.00,,,1.23,Wunderground v.1.15,2013-08-09 00:18:00,
2013-08-08 20:19:00,74.7,70.2,30.03,WSW,252,0.0,3.0,86,0.00,,,1.23,Wunderground v.1.15,2013-08-09 00:19:00,
2013-08-08 20:22:00,74.7,70.2,30.03,WSW,252,0.0,0.0,86,0.00,,,1.23,Wunderground v.1.15,2013-08-09 00:22:00,
2013-08-08 20:23:00,74.7,70.2,30.03,WSW,252,0.0,0.0,86,0.00,,,1.23,Wunderground v.1.15,2013-08-09 00:23:00,
2013-08-08 20:26:00,74.7,70.2,30.03,WSW,253,2.0,2.0,86,0.00,,,1.23,Wunderground v.1.15,2013-08-09 00:26:00,
2013-08-08 20:28:00,74.7,70.2,30.03,WSW,254,0.0,2.0,86,0.00,,,1.23,Wunderground v.1.15,2013-08-09 00:28:00,
2013-08-08 20:33:00,74.7,69.9,30.03,WSW,246,0.0,1.0,85,0.00,,,1.23,Wunderground v.1.15,2013-08-09 00:33:00,
2013-08-08 20:34:00,74.7,69.9,30.03,WSW,246,1.0,1.0,85,0.00,,,1.23,Wunderground v.1.15,2013-08-09 00:34:00,
2013-08-08 20:39:00,74.7,69.9,30.03,West,265,0.0,1.0,85,0.00,,,1.23,Wunderground v.1.15,2013-08-09 00:39:00,
2013-08-08 20:40:00,74.7,69.9,30.03,West,265,0.0,1.0,85,0.00,,,1.23,Wunderground v.1.15,2013-08-09 00:40:00,
2013-08-08 20:44:00,74.7,69.9,30.03,SSE,148,0.0,3.0,85,0.00,,,1.23,Wunderground v.1.15,2013-08-09 00:44:00,
2013-08-08 20:45:00,74.7,69.9,30.04,SSE,148,0.0,3.0,85,0.00,,,1.23,Wunderground v.1.15,2013-08-09 00:45:00,
2013-08-08 20:47:00,74.7,69.9,30.04,SSE,148,0.0,3.0,85,0.00,,,1.23,Wunderground v.1.15,2013-08-09 00:47:00,
2013-08-08 20:50:00,74.6,69.8,30.04,South,188,0.0,3.0,85,0.00,,,1.23,Wunderground v.1.15,2013-08-09 00:50:00,
2013-08-08 20:53:00,74.6,69.8,30.04,SSW,195,0.0,1.0,85,0.00,,,1.23,Wunderground v.1.15,2013-08-09 00:53:00,
2013-08-08 20:55:00,74.6,69.4,30.04,SE,135,3.0,3.0,84,0.00,,,1.23,Wunderground v.1.15,2013-08-09 00:55:00,
2013-08-08 20:56:00,74.6,69.4,30.04,SE,139,0.0,3.0,84,0.00,,,1.23,Wunderground v.1.15,2013-08-09 00:56:00,
2013-08-08 20:58:00,74.6,69.4,30.04,SE,139,0.0,3.0,84,0.00,,,1.23,Wunderground v.1.15,2013-08-09 00:58:00,
2013-08-08 21:00:00,74.6,69.8,30.04,SE,139,0.0,3.0,85,0.00,,,1.23,Wunderground v.1.15,2013-08-09 01:00:00,
2013-08-08 21:01:00,74.6,69.8,30.04,SSE,158,0.0,5.0,85,0.00,,,1.23,Wunderground v.1.15,2013-08-09 01:01:00,
2013-08-08 21:03:00,74.6,69.8,30.04,WSW,257,3.0,3.0,85,0.00,,,1.23,Wunderground v.1.15,2013-08-09 01:03:00,
2013-08-08 21:04:00,74.6,69.8,30.04,WSW,257,0.0,3.0,85,0.00,,,1.23,Wunderground v.1.15,2013-08-09 01:04:00,
2013-08-08 21:06:00,74.6,69.8,30.04,West,259,0.0,3.0,85,0.00,,,1.23,Wunderground v.1.15,2013-08-09 01:06:00,
2013-08-08 21:08:00,74.6,69.8,30.04,West,261,1.0,3.0,85,0.00,,,1.23,Wunderground v.1.15,2013-08-09 01:08:00,
2013-08-08 21:09:00,74.6,69.8,30.04,ESE,121,0.0,5.0,85,0.00,,,1.23,Wunderground v.1.15,2013-08-09 01:09:00,
2013-08-08 21:10:00,74.6,69.8,30.04,ESE,121,0.0,5.0,85,0.00,,,1.23,Wunderground v.1.15,2013-08-09 01:10:00,
2013-08-08 21:11:00,74.6,69.8,30.04,WSW,246,0.0,5.0,85,0.00,,,1.23,Wunderground v.1.15,2013-08-09 01:11:00,
2013-08-08 21:13:00,74.6,69.8,30.04,SE,140,2.0,3.0,85,0.00,,,1.23,Wunderground v.1.15,2013-08-09 01:13:00,
2013-08-08 21:15:00,74.6,69.8,30.04,SE,140,0.0,3.0,85,0.00,,,1.23,Wunderground v.1.15,2013-08-09 01:15:00,
2013-08-08 21:16:00,74.6,69.8,30.04,SE,140,0.0,3.0,85,0.00,,,1.23,Wunderground v.1.15,2013-08-09 01:16:00,
2013-08-08 21:17:00,74.6,69.8,30.04,SE,140,0.0,3.0,85,0.00,,,1.23,Wunderground v.1.15,2013-08-09 01:17:00,
2013-08-08 21:20:00,74.6,69.8,30.04,South,171,0.0,3.0,85,0.00,,,1.23,Wunderground v.1.15,2013-08-09 01:20:00,
2013-08-08 21:22:00,74.6,69.8,30.04,South,171,0.0,0.0,85,0.00,,,1.23,Wunderground v.1.15,2013-08-09 01:22:00,
2013-08-08 21:23:00,74.6,70.1,30.04,SSE,153,0.0,1.0,86,0.00,,,1.23,Wunderground v.1.15,2013-08-09 01:23:00,
2013-08-08 21:25:00,74.6,70.1,30.05,SSE,153,0.0,1.0,86,0.00,,,1.23,Wunderground v.1.15,2013-08-09 01:25:00,
2013-08-08 21:26:00,74.6,70.1,30.04,SE,146,2.0,2.0,86,0.00,,,1.23,Wunderground v.1.15,2013-08-09 01:26:00,
2013-08-08 21:27:00,74.6,70.1,30.04,SE,146,0.0,2.0,86,0.00,,,1.23,Wunderground v.1.15,2013-08-09 01:27:00,
2013-08-08 21:28:00,74.6,70.1,30.04,WNW,283,0.0,4.0,86,0.00,,,1.23,Wunderground v.1.15,2013-08-09 01:28:00,
2013-08-08 21:32:00,74.6,70.1,30.05,WSW,250,2.0,2.0,86,0.00,,,1.23,Wunderground v.1.15,2013-08-09 01:32:00,
2013-08-08 21:33:00,74.6,70.1,30.05,WSW,250,0.0,2.0,86,0.00,,,1.23,Wunderground v.1.15,2013-08-09 01:33:00,
2013-08-08 21:34:00,74.6,70.1,30.05,WSW,250,0.0,2.0,86,0.00,,,1.23,Wunderground v.1.15,2013-08-09 01:34:00,
2013-08-08 21:38:00,74.6,70.1,30.05,WSW,256,0.0,2.0,86,0.00,,,1.23,Wunderground v.1.15,2013-08-09 01:38:00,
2013-08-08 21:39:00,74.6,70.1,30.05,WSW,256,0.0,2.0,86,0.00,,,1.23,Wunderground v.1.15,2013-08-09 01:39:00,
2013-08-08 21:44:00,74.6,70.1,30.05,WSW,256,0.0,0.0,86,0.00,,,1.23,Wunderground v.1.15,2013-08-09 01:44:00,
2013-08-08 21:45:00,74.6,70.1,30.05,WSW,256,0.0,0.0,86,0.00,,,1.23,Wunderground v.1.15,2013-08-09 01:45:00,
2013-08-08 21:46:00,74.4,69.9,30.05,WSW,256,0.0,0.0,86,0.00,,,1.23,Wunderground v.1.15,2013-08-09 01:46:00,
2013-08-08 21:50:00,74.6,70.1,30.04,West,264,0.0,3.0,86,0.00,,,1.23,Wunderground v.1.15,2013-08-09 01:50:00,
2013-08-08 21:51:00,74.6,70.1,30.05,West,264,0.0,3.0,86,0.00,,,1.23,Wunderground v.1.15,2013-08-09 01:51:00,
2013-08-08 21:52:00,74.6,70.1,30.05,West,265,0.0,3.0,86,0.00,,,1.23,Wunderground v.1.15,2013-08-09 01:52:00,
2013-08-08 21:57:00,74.4,69.9,30.04,WSW,255,3.0,3.0,86,0.00,,,1.23,Wunderground v.1.15,2013-08-09 01:57:00,
2013-08-08 22:02:00,74.4,69.9,30.05,WSW,254,0.0,0.0,86,0.00,,,1.23,Wunderground v.1.15,2013-08-09 02:02:00,
2013-08-08 22:03:00,74.4,69.9,30.05,WSW,254,1.0,1.0,86,0.00,,,1.23,Wunderground v.1.15,2013-08-09 02:03:00,
2013-08-08 22:04:00,74.4,69.9,30.05,WSW,253,1.0,1.0,86,0.00,,,1.23,Wunderground v.1.15,2013-08-09 02:04:00,
2013-08-08 22:07:00,74.4,70.3,30.05,ESE,115,0.0,4.0,87,0.00,,,1.23,Wunderground v.1.15,2013-08-09 02:07:00,
2013-08-08 22:09:00,74.4,70.3,30.04,SE,146,2.0,4.0,87,0.00,,,1.23,Wunderground v.1.15,2013-08-09 02:09:00,
2013-08-08 22:13:00,74.2,70.1,30.04,SSE,150,0.0,0.0,87,0.00,,,1.23,Wunderground v.1.15,2013-08-09 02:13:00,
2013-08-08 22:14:00,74.2,70.1,30.04,SSE,150,0.0,0.0,87,0.00,,,1.23,Wunderground v.1.15,2013-08-09 02:14:00,
2013-08-08 22:19:00,74.2,70.1,30.04,SSE,150,0.0,1.0,87,0.00,,,1.23,Wunderground v.1.15,2013-08-09 02:19:00,
2013-08-08 22:21:00,74.2,70.1,30.04,SSE,150,0.0,1.0,87,0.00,,,1.23,Wunderground v.1.15,2013-08-09 02:21:00,
2013-08-08 22:25:00,74.2,70.1,30.04,ESE,109,0.0,3.0,87,0.00,,,1.23,Wunderground v.1.15,2013-08-09 02:25:00,
2013-08-08 22:26:00,74.2,70.1,30.04,ESE,109,0.0,3.0,87,0.00,,,1.23,Wunderground v.1.15,2013-08-09 02:26:00,
2013-08-08 22:27:00,74.2,70.1,30.04,ESE,109,0.0,3.0,87,0.00,,,1.23,Wunderground v.1.15,2013-08-09 02:27:00,
2013-08-08 22:31:00,74.2,70.1,30.04,SE,132,0.0,3.0,87,0.00,,,1.23,Wunderground v.1.15,2013-08-09 02:31:00,
2013-08-08 22:32:00,74.2,70.1,30.04,SE,134,0.0,0.0,87,0.00,,,1.23,Wunderground v.1.15,2013-08-09 02:32:00,
2013-08-08 22:33:00,74.2,70.1,30.04,SE,134,2.0,2.0,87,0.00,,,1.23,Wunderground v.1.15,2013-08-09 02:33:00,
2013-08-08 22:36:00,74.2,70.4,30.04,North,355,0.0,2.0,88,0.00,,,1.23,Wunderground v.1.15,2013-08-09 02:36:00,
2013-08-08 22:38:00,74.2,70.4,30.04,North,355,0.0,2.0,88,0.00,,,1.23,Wunderground v.1.15,2013-08-09 02:38:00,
2013-08-08 22:41:00,74.2,70.4,30.04,North,355,0.0,2.0,88,0.00,,,1.23,Wunderground v.1.15,2013-08-09 02:41:00,
2013-08-08 22:43:00,74.2,70.4,30.04,North,355,0.0,0.0,88,0.00,,,1.23,Wunderground v.1.15,2013-08-09 02:43:00,
2013-08-08 22:44:00,74.2,70.4,30.04,North,355,0.0,0.0,88,0.00,,,1.23,Wunderground v.1.15,2013-08-09 02:44:00,
2013-08-08 22:46:00,74.2,70.4,30.04,WSW,242,0.0,2.0,88,0.00,,,1.23,Wunderground v.1.15,2013-08-09 02:46:00,
2013-08-08 22:48:00,74.4,70.6,30.04,SSE,150,2.0,6.0,88,0.00,,,1.23,Wunderground v.1.15,2013-08-09 02:48:00,
2013-08-08 22:49:00,74.4,70.6,30.04,SW,215,0.0,6.0,88,0.00,,,1.23,Wunderground v.1.15,2013-08-09 02:49:00,
2013-08-08 22:51:00,74.4,70.6,30.04,South,187,0.0,6.0,88,0.00,,,1.23,Wunderground v.1.15,2013-08-09 02:51:00,
2013-08-08 22:54:00,74.4,70.6,30.04,WNW,293,0.0,5.0,88,0.00,,,1.23,Wunderground v.1.15,2013-08-09 02:54:00,
2013-08-08 22:55:00,74.4,70.3,30.04,WNW,293,0.0,5.0,87,0.00,,,1.23,Wunderground v.1.15,2013-08-09 02:55:00,
2013-08-08 22:56:00,74.4,70.3,30.04,WNW,292,2.0,5.0,87,0.00,,,1.23,Wunderground v.1.15,2013-08-09 02:56:00,
2013-08-08 23:00:00,74.4,70.6,30.04,SSE,160,4.0,5.0,88,0.00,,,1.23,Wunderground v.1.15,2013-08-09 03:00:00,
2013-08-08 23:01:00,74.4,70.6,30.04,SSE,157,0.0,5.0,88,0.00,,,1.23,Wunderground v.1.15,2013-08-09 03:01:00,
2013-08-08 23:02:00,74.4,70.6,30.04,SSE,166,1.0,1.0,88,0.00,,,1.23,Wunderground v.1.15,2013-08-09 03:02:00,
2013-08-08 23:06:00,74.4,70.6,30.04,SSE,165,2.0,3.0,88,0.00,,,1.23,Wunderground v.1.15,2013-08-09 03:06:00,
2013-08-08 23:08:00,74.4,70.6,30.04,West,279,0.0,5.0,88,0.00,,,1.23,Wunderground v.1.15,2013-08-09 03:08:00,
2013-08-08 23:11:00,74.4,70.6,30.05,SSE,147,1.0,5.0,88,0.00,,,1.23,Wunderground v.1.15,2013-08-09 03:11:00,
2013-08-08 23:12:00,74.4,70.6,30.04,SSE,147,0.0,0.0,88,0.00,,,1.23,Wunderground v.1.15,2013-08-09 03:12:00,
2013-08-08 23:13:00,74.4,70.6,30.04,SSE,147,0.0,0.0,88,0.00,,,1.23,Wunderground v.1.15,2013-08-09 03:13:00,
2013-08-08 23:17:00,74.4,70.6,30.05,SSE,163,0.0,1.0,88,0.00,,,1.23,Wunderground v.1.15,2013-08-09 03:17:00,
2013-08-08 23:18:00,74.4,70.6,30.04,SSE,153,1.0,1.0,88,0.00,,,1.23,Wunderground v.1.15,2013-08-09 03:18:00,
2013-08-08 23:22:00,74.4,70.6,30.04,SSE,153,0.0,0.0,88,0.00,,,1.23,Wunderground v.1.15,2013-08-09 03:22:00,
2013-08-08 23:23:00,74.4,70.6,30.04,SSE,153,0.0,0.0,88,0.00,,,1.23,Wunderground v.1.15,2013-08-09 03:23:00,
2013-08-08 23:24:00,74.4,70.6,30.05,SSE,153,0.0,0.0,88,0.00,,,1.23,Wunderground v.1.15,2013-08-09 03:24:00,
2013-08-08 23:28:00,74.4,70.6,30.04,SE,140,0.0,1.0,88,0.00,,,1.23,Wunderground v.1.15,2013-08-09 03:28:00,
2013-08-08 23:30:00,74.4,70.6,30.04,SE,140,0.0,1.0,88,0.00,,,1.23,Wunderground v.1.15,2013-08-09 03:30:00,
2013-08-08 23:33:00,74.4,70.6,30.04,SE,141,0.0,0.0,88,0.00,,,1.23,Wunderground v.1.15,2013-08-09 03:33:00,
2013-08-08 23:35:00,74.4,70.6,30.04,SE,141,0.0,1.0,88,0.00,,,1.23,Wunderground v.1.15,2013-08-09 03:35:00,
2013-08-08 23:36:00,74.4,70.6,30.04,SE,141,0.0,1.0,88,0.00,,,1.23,Wunderground v.1.15,2013-08-09 03:36:00,
2013-08-08 23:38:00,74.4,70.6,30.04,SE,141,0.0,1.0,88,0.00,,,1.23,Wunderground v.1.15,2013-08-09 03:38:00,
2013-08-08 23:40:00,74.4,70.6,30.04,SE,141,0.0,1.0,88,0.00,,,1.23,Wunderground v.1.15,2013-08-09 03:40:00,
2013-08-08 23:41:00,74.4,70.6,30.04,SE,141,0.0,1.0,88,0.00,,,1.23,Wunderground v.1.15,2013-08-09 03:41:00,
2013-08-08 23:43:00,74.4,70.6,30.04,ESE,107,1.0,2.0,88,0.00,,,1.23,Wunderground v.1.15,2013-08-09 03:43:00,
2013-08-08 23:47:00,74.4,70.6,30.04,ESE,109,0.0,2.0,88,0.00,,,1.23,Wunderground v.1.15,2013-08-09 03:47:00,
2013-08-08 23:52:00,74.4,70.6,30.04,SE,134,0.0,0.0,88,0.00,,,1.23,Wunderground v.1.15,2013-08-09 03:52:00,
2013-08-08 23:53:00,74.4,70.6,30.04,SE,134,0.0,0.0,88,0.00,,,1.23,Wunderground v.1.15,2013-08-09 03:53:00,
2013-08-08 23:54:00,74.4,70.6,30.04,SE,134,0.0,0.0,88,0.00,,,1.23,Wunderground v.1.15,2013-08-09 03:54:00,
2013-08-08 23:57:00,74.4,70.6,30.03,SE,134,0.0,1.0,88,0.00,,,1.23,Wunderground v.1.15,2013-08-09 03:57:00,
2013-08-08 23:59:00,74.4,70.6,30.03,SE,134,0.0,1.0,88,0.00,,,1.23,Wunderground v.1.15,2013-08-09 03:59:00,